Wetterdaten: Sonntag, 15.06.2014
Datum Zeit Temp. Aussen +5cm Feuchte Auss Luftdruck Regen Sonnenschein Regendauer UV Solar Windben
15.06.2014 00:00 15,0 C 13,9 C 80 % 1022,0 hPa 0,0 l/m 0 min 0 min 0,0 UV-I 0 W/m 8,4 km/h (2 Bft)
15.06.2014 00:02 15,0 C 13,9 C 80 % 1022,0 hPa 0,0 l/m 0 min 0 min 0,0 UV-I 0 W/m 6,3 km/h (2 Bft)
15.06.2014 00:06 15,0 C 13,9 C 80 % 1022,1 hPa 0,0 l/m 0 min 0 min 0,0 UV-I 0 W/m 10,5 km/h (2 Bft)
15.06.2014 00:08 15,0 C 13,9 C 80 % 1022,1 hPa 0,0 l/m 0 min 0 min 0,0 UV-I 0 W/m 10,5 km/h (2 Bft)
15.06.2014 00:10 15,0 C 13,9 C 80 % 1022,1 hPa 0,0 l/m 0 min 0 min 0,0 UV-I 0 W/m 10,5 km/h (2 Bft)
15.06.2014 00:12 15,0 C 13,9 C 80 % 1022,1 hPa 0,0 l/m 0 min 0 min 0,0 UV-I 0 W/m 12,6 km/h (3 Bft)
15.06.2014 00:14 15,1 C 13,9 C 80 % 1022,1 hPa 0,0 l/m 0 min 0 min 0,0 UV-I 0 W/m 16,7 km/h (3 Bft)
15.06.2014 00:16 15,1 C 13,9 C 80 % 1022,2 hPa 0,0 l/m 0 min 0 min 0,0 UV-I 0 W/m 10,5 km/h (2 Bft)
15.06.2014 00:18 15,1 C 13,9 C 80 % 1022,2 hPa 0,0 l/m 0 min 0 min 0,0 UV-I 0 W/m 23,0 km/h (4 Bft)
15.06.2014 00:20 15,1 C 13,9 C 80 % 1022,2 hPa 0,0 l/m 0 min 0 min 0,0 UV-I 0 W/m 10,5 km/h (2 Bft)
15.06.2014 00:22 15,1 C 13,9 C 80 % 1022,3 hPa 0,0 l/m 0 min 0 min 0,0 UV-I 0 W/m 10,5 km/h (2 Bft)
15.06.2014 00:24 15,1 C 13,9 C 80 % 1022,2 hPa 0,0 l/m 0 min 0 min 0,0 UV-I 0 W/m 20,9 km/h (4 Bft)
15.06.2014 00:26 15,1 C 13,9 C 80 % 1022,2 hPa 0,0 l/m 0 min 0 min 0,0 UV-I 0 W/m 20,9 km/h (4 Bft)
15.06.2014 00:28 15,1 C 13,9 C 80 % 1022,2 hPa 0,0 l/m 0 min 0 min 0,0 UV-I 0 W/m 10,5 km/h (2 Bft)
15.06.2014 00:30 15,0 C 13,9 C 80 % 1022,2 hPa 0,0 l/m 0 min 0 min 0,0 UV-I 0 W/m 12,6 km/h (3 Bft)
15.06.2014 00:32 15,0 C 13,9 C 80 % 1022,2 hPa 0,0 l/m 0 min 0 min 0,0 UV-I 0 W/m 10,5 km/h (2 Bft)
15.06.2014 00:34 14,9 C 13,9 C 80 % 1022,2 hPa 0,0 l/m 0 min 0 min 0,0 UV-I 0 W/m 14,6 km/h (3 Bft)
15.06.2014 00:36 14,9 C 13,9 C 81 % 1022,3 hPa 0,0 l/m 0 min 0 min 0,0 UV-I 0 W/m 12,6 km/h (3 Bft)
15.06.2014 00:38 14,9 C 13,9 C 81 % 1022,3 hPa 0,0 l/m 0 min 0 min 0,0 UV-I 0 W/m 14,6 km/h (3 Bft)
15.06.2014 00:40 14,9 C 13,9 C 81 % 1022,2 hPa 0,0 l/m 0 min 0 min 0,0 UV-I 0 W/m 14,6 km/h (3 Bft)
15.06.2014 00:42 14,9 C 13,9 C 81 % 1022,2 hPa 0,0 l/m 0 min 0 min 0,0 UV-I 0 W/m 12,6 km/h (3 Bft)
15.06.2014 00:44 14,8 C 13,9 C 81 % 1022,2 hPa 0,0 l/m 0 min 0 min 0,0 UV-I 0 W/m 16,7 km/h (3 Bft)
15.06.2014 00:46 14,8 C 13,9 C 81 % 1022,3 hPa 0,0 l/m 0 min 0 min 0,0 UV-I 0 W/m 14,6 km/h (3 Bft)
15.06.2014 00:48 14,8 C 13,9 C 82 % 1022,3 hPa 0,0 l/m 0 min 0 min 0,0 UV-I 0 W/m 23,0 km/h (4 Bft)
15.06.2014 00:50 14,7 C 13,9 C 81 % 1022,3 hPa 0,0 l/m 0 min 0 min 0,0 UV-I 0 W/m 14,6 km/h (3 Bft)
15.06.2014 00:52 14,7 C 13,3 C 81 % 1022,3 hPa 0,0 l/m 0 min 0 min 0,0 UV-I 0 W/m 16,7 km/h (3 Bft)
15.06.2014 00:54 14,7 C 13,3 C 82 % 1022,3 hPa 0,0 l/m 0 min 0 min 0,0 UV-I 0 W/m 12,6 km/h (3 Bft)
15.06.2014 00:56 14,6 C 13,3 C 82 % 1022,3 hPa 0,0 l/m 0 min 0 min 0,0 UV-I 0 W/m 10,5 km/h (2 Bft)
15.06.2014 00:58 14,5 C 13,3 C 82 % 1022,3 hPa 0,0 l/m 0 min 0 min 0,0 UV-I 0 W/m 14,6 km/h (3 Bft)
15.06.2014 01:00 14,4 C 13,3 C 82 % 1022,3 hPa 0,0 l/m 0 min 0 min 0,0 UV-I 0 W/m 12,6 km/h (3 Bft)
15.06.2014 01:02 14,4 C 13,3 C 83 % 1022,2 hPa 0,0 l/m 0 min 0 min 0,0 UV-I 0 W/m 10,5 km/h (2 Bft)
15.06.2014 01:04 14,3 C 13,3 C 83 % 1022,3 hPa 0,0 l/m 0 min 0 min 0,0 UV-I 0 W/m 8,4 km/h (2 Bft)
15.06.2014 01:06 14,3 C 13,3 C 83 % 1022,4 hPa 0,0 l/m 0 min 0 min 0,0 UV-I 0 W/m 8,4 km/h (2 Bft)
15.06.2014 01:08 14,2 C 12,8 C 83 % 1022,3 hPa 0,0 l/m 0 min 0 min 0,0 UV-I 0 W/m 6,3 km/h (2 Bft)
15.06.2014 01:10 14,2 C 12,8 C 83 % 1022,4 hPa 0,0 l/m 0 min 0 min 0,0 UV-I 0 W/m 10,5 km/h (2 Bft)
15.06.2014 01:12 14,2 C 12,8 C 84 % 1022,3 hPa 0,0 l/m 0 min 0 min 0,0 UV-I 0 W/m 8,4 km/h (2 Bft)
15.06.2014 01:14 14,2 C 12,8 C 84 % 1022,4 hPa 0,0 l/m 0 min 0 min 0,0 UV-I 0 W/m 12,6 km/h (3 Bft)
15.06.2014 01:16 14,2 C 12,8 C 84 % 1022,4 hPa 0,0 l/m 0 min 0 min 0,0 UV-I 0 W/m 8,4 km/h (2 Bft)
15.06.2014 01:18 14,1 C 12,8 C 84 % 1022,4 hPa 0,0 l/m 0 min 0 min 0,0 UV-I 0 W/m 6,3 km/h (2 Bft)
15.06.2014 01:20 14,1 C 12,8 C 84 % 1022,4 hPa 0,0 l/m 0 min 0 min 0,0 UV-I 0 W/m 10,5 km/h (2 Bft)
15.06.2014 01:22 14,0 C 12,8 C 84 % 1022,5 hPa 0,0 l/m 0 min 0 min 0,0 UV-I 0 W/m 12,6 km/h (3 Bft)
15.06.2014 01:24 14,0 C 12,8 C 84 % 1022,4 hPa 0,0 l/m 0 min 0 min 0,0 UV-I 0 W/m 12,6 km/h (3 Bft)
15.06.2014 01:26 14,0 C 12,8 C 85 % 1022,4 hPa 0,0 l/m 0 min 0 min 0,0 UV-I 0 W/m 10,5 km/h (2 Bft)
15.06.2014 01:28 14,0 C 12,8 C 85 % 1022,5 hPa 0,0 l/m 0 min 0 min 0,0 UV-I 0 W/m 8,4 km/h (2 Bft)
15.06.2014 01:30 13,9 C 12,8 C 85 % 1022,5 hPa 0,0 l/m 0 min 0 min 0,0 UV-I 0 W/m 8,4 km/h (2 Bft)
15.06.2014 01:32 13,9 C 12,8 C 85 % 1022,5 hPa 0,0 l/m 0 min 0 min 0,0 UV-I 0 W/m 10,5 km/h (2 Bft)
15.06.2014 01:34 13,9 C 12,8 C 85 % 1022,5 hPa 0,0 l/m 0 min 0 min 0,0 UV-I 0 W/m 12,6 km/h (3 Bft)
15.06.2014 01:36 13,9 C 12,8 C 85 % 1022,6 hPa 0,0 l/m 0 min 0 min 0,0 UV-I 0 W/m 8,4 km/h (2 Bft)
15.06.2014 01:38 13,9 C 12,8 C 85 % 1022,6 hPa 0,0 l/m 0 min 0 min 0,0 UV-I 0 W/m 12,6 km/h (3 Bft)
15.06.2014 01:40 13,8 C 12,8 C 85 % 1022,6 hPa 0,0 l/m 0 min 0 min 0,0 UV-I 0 W/m 12,6 km/h (3 Bft)
15.06.2014 01:42 13,8 C 12,8 C 85 % 1022,6 hPa 0,0 l/m 0 min 0 min 0,0 UV-I 0 W/m 10,5 km/h (2 Bft)
15.06.2014 01:44 13,7 C 12,8 C 85 % 1022,6 hPa 0,0 l/m 0 min 0 min 0,0 UV-I 0 W/m 10,5 km/h (2 Bft)
15.06.2014 01:46 13,7 C 12,2 C 86 % 1022,6 hPa 0,0 l/m 0 min 0 min 0,0 UV-I 0 W/m 10,5 km/h (2 Bft)
15.06.2014 01:48 13,6 C 12,2 C 86 % 1022,6 hPa 0,0 l/m 0 min 0 min 0,0 UV-I 0 W/m 6,3 km/h (2 Bft)
15.06.2014 01:50 13,6 C 12,2 C 86 % 1022,6 hPa 0,0 l/m 0 min 0 min 0,0 UV-I 0 W/m 10,5 km/h (2 Bft)
15.06.2014 01:52 13,6 C 12,2 C 86 % 1022,7 hPa 0,0 l/m 0 min 0 min 0,0 UV-I 0 W/m 12,6 km/h (3 Bft)
15.06.2014 01:54 13,5 C 12,2 C 86 % 1022,7 hPa 0,0 l/m 0 min 0 min 0,0 UV-I 0 W/m 10,5 km/h (2 Bft)
15.06.2014 01:56 13,4 C 12,2 C 86 % 1022,7 hPa 0,0 l/m 0 min 0 min 0,0 UV-I 0 W/m 12,6 km/h (3 Bft)
15.06.2014 01:58 13,4 C 12,2 C 87 % 1022,6 hPa 0,0 l/m 0 min 0 min 0,0 UV-I 0 W/m 6,3 km/h (2 Bft)
15.06.2014 02:00 13,3 C 12,2 C 87 % 1022,6 hPa 0,0 l/m 0 min 0 min 0,0 UV-I 0 W/m 8,4 km/h (2 Bft)
15.06.2014 02:02 13,3 C 12,2 C 87 % 1022,6 hPa 0,0 l/m 0 min 0 min 0,0 UV-I 0 W/m 8,4 km/h (2 Bft)
15.06.2014 02:04 13,2 C 12,2 C 87 % 1022,6 hPa 0,0 l/m 0 min 0 min 0,0 UV-I 0 W/m 10,5 km/h (2 Bft)
15.06.2014 02:06 13,2 C 12,2 C 87 % 1022,7 hPa 0,0 l/m 0 min 0 min 0,0 UV-I 0 W/m 12,6 km/h (3 Bft)
15.06.2014 02:08 13,2 C 12,2 C 87 % 1022,7 hPa 0,0 l/m 0 min 0 min 0,0 UV-I 0 W/m 8,4 km/h (2 Bft)
15.06.2014 02:10 13,2 C 12,2 C 87 % 1022,7 hPa 0,0 l/m 0 min 0 min 0,0 UV-I 0 W/m 8,4 km/h (2 Bft)
15.06.2014 02:12 13,1 C 12,2 C 88 % 1022,7 hPa 0,0 l/m 0 min 0 min 0,0 UV-I 0 W/m 6,3 km/h (2 Bft)
15.06.2014 02:14 13,1 C 12,2 C 88 % 1022,7 hPa 0,0 l/m 0 min 0 min 0,0 UV-I 0 W/m 8,4 km/h (2 Bft)
15.06.2014 02:16 13,1 C 12,2 C 88 % 1022,7 hPa 0,0 l/m 0 min 0 min 0,0 UV-I 0 W/m 8,4 km/h (2 Bft)
15.06.2014 02:18 13,0 C 11,7 C 88 % 1022,7 hPa 0,0 l/m 0 min 0 min 0,0 UV-I 0 W/m 8,4 km/h (2 Bft)
15.06.2014 02:20 13,0 C 11,7 C 88 % 1022,8 hPa 0,0 l/m 0 min 0 min 0,0 UV-I 0 W/m 8,4 km/h (2 Bft)
15.06.2014 02:22 12,9 C 11,7 C 88 % 1022,7 hPa 0,0 l/m 0 min 0 min 0,0 UV-I 0 W/m 8,4 km/h (2 Bft)
15.06.2014 02:24 12,9 C 11,7 C 88 % 1022,8 hPa 0,0 l/m 0 min 0 min 0,0 UV-I 0 W/m 4,2 km/h (1 Bft)
15.06.2014 02:26 12,9 C 11,7 C 89 % 1022,8 hPa 0,0 l/m 0 min 0 min 0,0 UV-I 0 W/m 6,3 km/h (2 Bft)
15.06.2014 02:28 12,8 C 11,7 C 89 % 1022,8 hPa 0,0 l/m 0 min 0 min 0,0 UV-I 0 W/m 2,1 km/h (1 Bft)
15.06.2014 02:30 12,8 C 11,7 C 89 % 1022,8 hPa 0,0 l/m 0 min 0 min 0,0 UV-I 0 W/m 8,4 km/h (2 Bft)
15.06.2014 02:32 12,8 C 11,7 C 89 % 1022,7 hPa 0,0 l/m 0 min 0 min 0,0 UV-I 0 W/m 8,4 km/h (2 Bft)
15.06.2014 02:34 12,8 C 11,7 C 89 % 1022,8 hPa 0,0 l/m 0 min 0 min 0,0 UV-I 0 W/m 12,6 km/h (3 Bft)
15.06.2014 02:36 12,7 C 11,7 C 89 % 1022,8 hPa 0,0 l/m 0 min 0 min 0,0 UV-I 0 W/m 10,5 km/h (2 Bft)
15.06.2014 02:38 12,7 C 11,7 C 89 % 1022,8 hPa 0,0 l/m 0 min 0 min 0,0 UV-I 0 W/m 10,5 km/h (2 Bft)
15.06.2014 02:40 12,7 C 11,7 C 89 % 1022,8 hPa 0,0 l/m 0 min 0 min 0,0 UV-I 0 W/m 10,5 km/h (2 Bft)
15.06.2014 02:42 12,7 C 11,7 C 89 % 1022,8 hPa 0,0 l/m 0 min 0 min 0,0 UV-I 0 W/m 10,5 km/h (2 Bft)
15.06.2014 02:44 12,7 C 11,7 C 89 % 1022,8 hPa 0,0 l/m 0 min 0 min 0,0 UV-I 0 W/m 14,6 km/h (3 Bft)
15.06.2014 02:46 12,7 C 11,7 C 89 % 1022,9 hPa 0,0 l/m 0 min 0 min 0,0 UV-I 0 W/m 10,5 km/h (2 Bft)
15.06.2014 02:48 12,7 C 11,7 C 89 % 1022,9 hPa 0,0 l/m 0 min 0 min 0,0 UV-I 0 W/m 6,3 km/h (2 Bft)
15.06.2014 02:50 12,6 C 11,7 C 90 % 1022,9 hPa 0,0 l/m 0 min 0 min 0,0 UV-I 0 W/m 0,0 km/h (0 Bft)
15.06.2014 02:52 12,6 C 11,7 C 90 % 1022,8 hPa 0,0 l/m 0 min 0 min 0,0 UV-I 0 W/m 10,5 km/h (2 Bft)
15.06.2014 02:54 12,6 C 11,7 C 90 % 1022,9 hPa 0,0 l/m 0 min 0 min 0,0 UV-I 0 W/m 2,1 km/h (1 Bft)
15.06.2014 02:56 12,5 C 11,7 C 90 % 1022,9 hPa 0,0 l/m 0 min 0 min 0,0 UV-I 0 W/m 6,3 km/h (2 Bft)
15.06.2014 02:58 12,4 C 11,1 C 90 % 1022,9 hPa 0,0 l/m 0 min 0 min 0,0 UV-I 0 W/m 8,4 km/h (2 Bft)
15.06.2014 03:00 12,4 C 11,1 C 90 % 1022,9 hPa 0,0 l/m 0 min 0 min 0,0 UV-I 0 W/m 8,4 km/h (2 Bft)
15.06.2014 03:02 12,4 C 11,1 C 90 % 1022,9 hPa 0,0 l/m 0 min 0 min 0,0 UV-I 0 W/m 4,2 km/h (1 Bft)
15.06.2014 03:04 12,3 C 11,1 C 90 % 1022,9 hPa 0,0 l/m 0 min 0 min 0,0 UV-I 0 W/m 6,3 km/h (2 Bft)
15.06.2014 03:06 12,3 C 11,1 C 90 % 1022,9 hPa 0,0 l/m 0 min 0 min 0,0 UV-I 0 W/m 2,1 km/h (1 Bft)
15.06.2014 03:08 12,3 C 11,1 C 90 % 1022,9 hPa 0,0 l/m 0 min 0 min 0,0 UV-I 0 W/m 8,4 km/h (2 Bft)
15.06.2014 03:10 12,2 C 11,1 C 91 % 1023,0 hPa 0,0 l/m 0 min 0 min 0,0 UV-I 0 W/m 6,3 km/h (2 Bft)
15.06.2014 03:12 12,2 C 11,1 C 91 % 1023,1 hPa 0,0 l/m 0 min 0 min 0,0 UV-I 0 W/m 2,1 km/h (1 Bft)
15.06.2014 03:14 12,2 C 11,1 C 91 % 1023,0 hPa 0,0 l/m 0 min 0 min 0,0 UV-I 0 W/m 8,4 km/h (2 Bft)
15.06.2014 03:16 12,2 C 11,1 C 91 % 1023,1 hPa 0,0 l/m 0 min 0 min 0,0 UV-I 0 W/m 8,4 km/h (2 Bft)
15.06.2014 03:18 12,2 C 11,1 C 91 % 1023,1 hPa 0,0 l/m 0 min 0 min 0,0 UV-I 0 W/m 2,1 km/h (1 Bft)
15.06.2014 03:20 12,1 C 11,1 C 91 % 1023,0 hPa 0,0 l/m 0 min 0 min 0,0 UV-I 0 W/m 8,4 km/h (2 Bft)
15.06.2014 03:22 12,1 C 11,1 C 91 % 1023,1 hPa 0,0 l/m 0 min 0 min 0,0 UV-I 0 W/m 10,5 km/h (2 Bft)
15.06.2014 03:24 12,1 C 11,1 C 91 % 1023,1 hPa 0,0 l/m 0 min 0 min 0,0 UV-I 0 W/m 10,5 km/h (2 Bft)
15.06.2014 03:26 12,1 C 11,1 C 92 % 1023,1 hPa 0,0 l/m 0 min 0 min 0,0 UV-I 0 W/m 10,5 km/h (2 Bft)
15.06.2014 03:28 12,1 C 11,1 C 92 % 1023,1 hPa 0,0 l/m 0 min 0 min 0,0 UV-I 0 W/m 12,6 km/h (3 Bft)
15.06.2014 03:30 12,1 C 11,1 C 92 % 1023,1 hPa 0,0 l/m 0 min 0 min 0,0 UV-I 0 W/m 10,5 km/h (2 Bft)
15.06.2014 03:32 12,1 C 11,1 C 92 % 1023,1 hPa 0,0 l/m 0 min 0 min 0,0 UV-I 0 W/m 14,6 km/h (3 Bft)
15.06.2014 03:34 12,1 C 11,1 C 91 % 1023,1 hPa 0,0 l/m 0 min 0 min 0,0 UV-I 0 W/m 10,5 km/h (2 Bft)
15.06.2014 03:36 12,0 C 11,1 C 92 % 1023,1 hPa 0,0 l/m 0 min 0 min 0,0 UV-I 0 W/m 10,5 km/h (2 Bft)
15.06.2014 03:38 12,0 C 11,1 C 92 % 1023,0 hPa 0,0 l/m 0 min 0 min 0,0 UV-I 0 W/m 8,4 km/h (2 Bft)
15.06.2014 03:40 11,9 C 11,1 C 92 % 1023,1 hPa 0,0 l/m 0 min 0 min 0,0 UV-I 0 W/m 8,4 km/h (2 Bft)
15.06.2014 03:42 11,9 C 11,1 C 92 % 1023,0 hPa 0,0 l/m 0 min 0 min 0,0 UV-I 0 W/m 12,6 km/h (3 Bft)
15.06.2014 03:44 11,9 C 11,1 C 92 % 1023,0 hPa 0,0 l/m 0 min 0 min 0,0 UV-I 0 W/m 12,6 km/h (3 Bft)
15.06.2014 03:46 11,9 C 11,1 C 92 % 1023,1 hPa 0,0 l/m 0 min 0 min 0,0 UV-I 0 W/m 8,4 km/h (2 Bft)
15.06.2014 03:48 11,9 C 11,1 C 92 % 1023,0 hPa 0,0 l/m 0 min 0 min 0,0 UV-I 0 W/m 12,6 km/h (3 Bft)
15.06.2014 03:50 11,9 C 11,1 C 92 % 1023,0 hPa 0,0 l/m 0 min 0 min 0,0 UV-I 0 W/m 8,4 km/h (2 Bft)
15.06.2014 03:52 11,9 C 11,1 C 92 % 1023,0 hPa 0,0 l/m 0 min 0 min 0,0 UV-I 0 W/m 10,5 km/h (2 Bft)
15.06.2014 03:54 11,9 C 10,6 C 92 % 1023,0 hPa 0,0 l/m 0 min 0 min 0,0 UV-I 0 W/m 10,5 km/h (2 Bft)
15.06.2014 03:56 11,9 C 10,6 C 92 % 1023,0 hPa 0,0 l/m 0 min 0 min 0,0 UV-I 0 W/m 8,4 km/h (2 Bft)
15.06.2014 03:58 11,8 C 10,6 C 92 % 1023,0 hPa 0,0 l/m 0 min 0 min 0,0 UV-I 0 W/m 8,4 km/h (2 Bft)
15.06.2014 04:00 11,8 C 10,6 C 92 % 1023,0 hPa 0,0 l/m 0 min 0 min 0,0 UV-I 0 W/m 8,4 km/h (2 Bft)
15.06.2014 04:02 11,8 C 10,6 C 92 % 1023,0 hPa 0,0 l/m 0 min 0 min 0,0 UV-I 0 W/m 4,2 km/h (1 Bft)
15.06.2014 04:04 11,8 C 10,6 C 92 % 1022,9 hPa 0,0 l/m 0 min 0 min 0,0 UV-I 0 W/m 12,6 km/h (3 Bft)
15.06.2014 04:06 11,8 C 10,6 C 92 % 1022,9 hPa 0,0 l/m 0 min 0 min 0,0 UV-I 0 W/m 12,6 km/h (3 Bft)
15.06.2014 04:08 11,8 C 10,6 C 92 % 1022,9 hPa 0,0 l/m 0 min 0 min 0,0 UV-I 0 W/m 16,7 km/h (3 Bft)
15.06.2014 04:10 11,8 C 10,6 C 92 % 1023,0 hPa 0,0 l/m 0 min 0 min 0,0 UV-I 0 W/m 10,5 km/h (2 Bft)
15.06.2014 04:12 11,8 C 10,6 C 92 % 1023,0 hPa 0,0 l/m 0 min 0 min 0,0 UV-I 0 W/m 12,6 km/h (3 Bft)
15.06.2014 04:14 11,8 C 10,6 C 93 % 1023,0 hPa 0,0 l/m 0 min 0 min 0,0 UV-I 0 W/m 12,6 km/h (3 Bft)
15.06.2014 04:16 11,8 C 10,6 C 93 % 1022,9 hPa 0,0 l/m 0 min 0 min 0,0 UV-I 0 W/m 8,4 km/h (2 Bft)
15.06.2014 04:18 11,8 C 10,6 C 93 % 1022,9 hPa 0,0 l/m 0 min 0 min 0,0 UV-I 0 W/m 10,5 km/h (2 Bft)
15.06.2014 04:20 11,7 C 10,6 C 93 % 1022,9 hPa 0,0 l/m 0 min 0 min 0,0 UV-I 0 W/m 8,4 km/h (2 Bft)
15.06.2014 04:22 11,7 C 10,6 C 93 % 1022,9 hPa 0,0 l/m 0 min 0 min 0,0 UV-I 0 W/m 10,5 km/h (2 Bft)
15.06.2014 04:24 11,7 C 10,6 C 93 % 1022,9 hPa 0,0 l/m 0 min 0 min 0,0 UV-I 0 W/m 10,5 km/h (2 Bft)
15.06.2014 04:26 11,7 C 10,6 C 93 % 1022,9 hPa 0,0 l/m 0 min 0 min 0,0 UV-I 0 W/m 8,4 km/h (2 Bft)
15.06.2014 04:28 11,7 C 10,6 C 93 % 1022,9 hPa 0,0 l/m 0 min 0 min 0,0 UV-I 0 W/m 8,4 km/h (2 Bft)
15.06.2014 04:30 11,6 C 10,6 C 93 % 1023,0 hPa 0,0 l/m 0 min 0 min 0,0 UV-I 0 W/m 10,5 km/h (2 Bft)
15.06.2014 04:32 11,6 C 10,6 C 93 % 1023,0 hPa 0,0 l/m 0 min 0 min 0,0 UV-I 0 W/m 8,4 km/h (2 Bft)
15.06.2014 04:34 11,6 C 10,6 C 93 % 1023,1 hPa 0,0 l/m 0 min 0 min 0,0 UV-I 0 W/m 6,3 km/h (2 Bft)
15.06.2014 04:36 11,6 C 10,6 C 93 % 1023,1 hPa 0,0 l/m 0 min 0 min 0,0 UV-I 0 W/m 6,3 km/h (2 Bft)
15.06.2014 04:38 11,5 C 10,6 C 93 % 1023,0 hPa 0,0 l/m 0 min 0 min 0,0 UV-I 0 W/m 2,1 km/h (1 Bft)
15.06.2014 04:40 11,5 C 10,6 C 93 % 1023,1 hPa 0,0 l/m 0 min 0 min 0,0 UV-I 0 W/m 10,5 km/h (2 Bft)
15.06.2014 04:42 11,4 C 10,6 C 93 % 1023,1 hPa 0,0 l/m 0 min 0 min 0,0 UV-I 0 W/m 2,1 km/h (1 Bft)
15.06.2014 04:44 11,4 C 10,6 C 93 % 1023,1 hPa 0,0 l/m 0 min 0 min 0,0 UV-I 0 W/m 4,2 km/h (1 Bft)
15.06.2014 04:46 11,4 C 10,6 C 93 % 1023,2 hPa 0,0 l/m 0 min 0 min 0,0 UV-I 0 W/m 6,3 km/h (2 Bft)
15.06.2014 04:48 11,4 C 10,6 C 93 % 1023,1 hPa 0,0 l/m 0 min 0 min 0,0 UV-I 0 W/m 8,4 km/h (2 Bft)
15.06.2014 04:50 11,4 C 10,6 C 93 % 1023,1 hPa 0,0 l/m 0 min 0 min 0,0 UV-I 0 W/m 12,6 km/h (3 Bft)
15.06.2014 04:52 11,4 C 10,6 C 94 % 1023,1 hPa 0,0 l/m 0 min 0 min 0,0 UV-I 0 W/m 6,3 km/h (2 Bft)
15.06.2014 04:54 11,4 C 10,6 C 94 % 1023,2 hPa 0,0 l/m 0 min 0 min 0,0 UV-I 0 W/m 6,3 km/h (2 Bft)
15.06.2014 04:56 11,3 C 10,6 C 94 % 1023,1 hPa 0,0 l/m 0 min 0 min 0,0 UV-I 0 W/m 10,5 km/h (2 Bft)
15.06.2014 04:58 11,3 C 10,6 C 94 % 1023,1 hPa 0,0 l/m 0 min 0 min 0,0 UV-I 0 W/m 6,3 km/h (2 Bft)
15.06.2014 05:00 11,3 C 10,6 C 94 % 1023,1 hPa 0,0 l/m 0 min 0 min 0,0 UV-I 0 W/m 10,5 km/h (2 Bft)
15.06.2014 05:02 11,3 C 10,6 C 94 % 1023,1 hPa 0,0 l/m 0 min 0 min 0,0 UV-I 0 W/m 6,3 km/h (2 Bft)
15.06.2014 05:04 11,3 C 10,6 C 94 % 1023,1 hPa 0,0 l/m 0 min 0 min 0,0 UV-I 0 W/m 8,4 km/h (2 Bft)
15.06.2014 05:06 11,3 C 10,6 C 94 % 1023,1 hPa 0,0 l/m 0 min 0 min 0,0 UV-I 0 W/m 10,5 km/h (2 Bft)
15.06.2014 05:08 11,2 C 10,0 C 94 % 1023,1 hPa 0,0 l/m 0 min 0 min 0,0 UV-I 0 W/m 12,6 km/h (3 Bft)
15.06.2014 05:10 11,2 C 10,0 C 94 % 1023,0 hPa 0,0 l/m 0 min 0 min 0,0 UV-I 0 W/m 8,4 km/h (2 Bft)
15.06.2014 05:12 11,2 C 10,6 C 94 % 1023,1 hPa 0,0 l/m 0 min 0 min 0,0 UV-I 0 W/m 10,5 km/h (2 Bft)
15.06.2014 05:14 11,2 C 10,6 C 94 % 1023,1 hPa 0,0 l/m 0 min 0 min 0,0 UV-I 0 W/m 4,2 km/h (1 Bft)
15.06.2014 05:16 11,2 C 10,6 C 94 % 1023,1 hPa 0,0 l/m 0 min 0 min 0,0 UV-I 0 W/m 2,1 km/h (1 Bft)
15.06.2014 05:18 11,2 C 10,0 C 94 % 1023,1 hPa 0,0 l/m 0 min 0 min 0,0 UV-I 6 W/m 10,5 km/h (2 Bft)
15.06.2014 05:20 11,2 C 10,6 C 94 % 1023,1 hPa 0,0 l/m 0 min 0 min 0,0 UV-I 6 W/m 10,5 km/h (2 Bft)
15.06.2014 05:22 11,2 C 10,6 C 94 % 1023,1 hPa 0,0 l/m 0 min 0 min 0,0 UV-I 6 W/m 8,4 km/h (2 Bft)
15.06.2014 05:24 11,2 C 10,6 C 94 % 1023,2 hPa 0,0 l/m 0 min 0 min 0,0 UV-I 9 W/m 6,3 km/h (2 Bft)
15.06.2014 05:26 11,2 C 10,6 C 94 % 1023,1 hPa 0,0 l/m 0 min 0 min 0,0 UV-I 12 W/m 0,0 km/h (0 Bft)
15.06.2014 05:28 11,2 C 10,0 C 94 % 1023,1 hPa 0,0 l/m 0 min 0 min 0,0 UV-I 12 W/m 0,0 km/h (0 Bft)
15.06.2014 05:30 11,2 C 10,0 C 94 % 1023,1 hPa 0,0 l/m 0 min 0 min 0,0 UV-I 14 W/m 0,0 km/h (0 Bft)
15.06.2014 05:32 11,2 C 10,0 C 94 % 1023,1 hPa 0,0 l/m 2 min 0 min 0,0 UV-I 15 W/m 8,4 km/h (2 Bft)
15.06.2014 05:34 11,2 C 10,0 C 94 % 1023,2 hPa 0,0 l/m 2 min 0 min 0,0 UV-I 15 W/m 0,0 km/h (0 Bft)
15.06.2014 05:36 11,2 C 10,0 C 94 % 1023,2 hPa 0,0 l/m 2 min 0 min 0,0 UV-I 20 W/m 0,0 km/h (0 Bft)
15.06.2014 05:38 11,1 C 10,0 C 94 % 1023,2 hPa 0,0 l/m 2 min 0 min 0,0 UV-I 20 W/m 0,0 km/h (0 Bft)
15.06.2014 05:40 11,1 C 10,0 C 94 % 1023,3 hPa 0,0 l/m 2 min 0 min 0,0 UV-I 23 W/m 0,0 km/h (0 Bft)
15.06.2014 05:42 11,1 C 10,0 C 94 % 1023,2 hPa 0,0 l/m 2 min 0 min 0,0 UV-I 24 W/m 0,0 km/h (0 Bft)
15.06.2014 05:44 11,1 C 10,0 C 94 % 1023,2 hPa 0,0 l/m 2 min 0 min 0,0 UV-I 23 W/m 2,1 km/h (1 Bft)
15.06.2014 05:46 11,1 C 10,0 C 94 % 1023,2 hPa 0,0 l/m 0 min 0 min 0,0 UV-I 24 W/m 0,0 km/h (0 Bft)
15.06.2014 05:48 11,1 C 10,0 C 94 % 1023,2 hPa 0,0 l/m 2 min 0 min 0,0 UV-I 32 W/m 0,0 km/h (0 Bft)
15.06.2014 05:50 11,1 C 10,0 C 94 % 1023,2 hPa 0,0 l/m 2 min 0 min 0,0 UV-I 38 W/m 0,0 km/h (0 Bft)
15.06.2014 05:52 11,1 C 10,0 C 94 % 1023,2 hPa 0,0 l/m 2 min 0 min 0,0 UV-I 45 W/m 0,0 km/h (0 Bft)
15.06.2014 05:54 11,2 C 10,0 C 94 % 1023,3 hPa 0,0 l/m 2 min 0 min 0,0 UV-I 38 W/m 0,0 km/h (0 Bft)
15.06.2014 05:56 11,1 C 10,0 C 94 % 1023,2 hPa 0,0 l/m 2 min 0 min 0,0 UV-I 41 W/m 0,0 km/h (0 Bft)
15.06.2014 05:58 11,2 C 10,6 C 95 % 1023,2 hPa 0,0 l/m 2 min 0 min 0,0 UV-I 42 W/m 0,0 km/h (0 Bft)
15.06.2014 06:00 11,2 C 10,0 C 95 % 1023,2 hPa 0,0 l/m 2 min 0 min 0,0 UV-I 45 W/m 0,0 km/h (0 Bft)
15.06.2014 06:02 11,2 C 10,0 C 95 % 1023,2 hPa 0,0 l/m 2 min 0 min 0,0 UV-I 45 W/m 0,0 km/h (0 Bft)
15.06.2014 06:06 11,1 C 10,0 C 95 % 1023,2 hPa 0,0 l/m 2 min 0 min 0,0 UV-I 54 W/m 0,0 km/h (0 Bft)
15.06.2014 06:08 11,2 C 10,0 C 95 % 1023,2 hPa 0,0 l/m 2 min 0 min 0,0 UV-I 60 W/m 0,0 km/h (0 Bft)
15.06.2014 06:10 11,2 C 10,0 C 95 % 1023,3 hPa 0,0 l/m 2 min 0 min 0,0 UV-I 88 W/m 0,0 km/h (0 Bft)
15.06.2014 06:12 11,2 C 10,6 C 95 % 1023,3 hPa 0,0 l/m 2 min 0 min 0,0 UV-I 83 W/m 0,0 km/h (0 Bft)
15.06.2014 06:14 11,2 C 10,6 C 95 % 1023,3 hPa 0,0 l/m 2 min 0 min 0,0 UV-I 97 W/m 0,0 km/h (0 Bft)
15.06.2014 06:16 11,2 C 10,6 C 95 % 1023,3 hPa 0,0 l/m 2 min 0 min 0,0 UV-I 63 W/m 0,0 km/h (0 Bft)
15.06.2014 06:18 11,2 C 10,6 C 95 % 1023,2 hPa 0,0 l/m 2 min 0 min 0,0 UV-I 81 W/m 0,0 km/h (0 Bft)
15.06.2014 06:20 11,2 C 10,6 C 95 % 1023,2 hPa 0,0 l/m 2 min 0 min 0,0 UV-I 126 W/m 0,0 km/h (0 Bft)
15.06.2014 06:22 11,2 C 10,6 C 94 % 1023,3 hPa 0,0 l/m 2 min 0 min 0,0 UV-I 140 W/m 0,0 km/h (0 Bft)
15.06.2014 06:24 11,3 C 10,6 C 94 % 1023,3 hPa 0,0 l/m 2 min 0 min 0,0 UV-I 145 W/m 0,0 km/h (0 Bft)
15.06.2014 06:26 11,3 C 10,6 C 94 % 1023,3 hPa 0,0 l/m 2 min 0 min 0,0 UV-I 128 W/m 0,0 km/h (0 Bft)
15.06.2014 06:28 11,3 C 10,6 C 94 % 1023,3 hPa 0,0 l/m 2 min 0 min 0,0 UV-I 119 W/m 0,0 km/h (0 Bft)
15.06.2014 06:30 11,3 C 10,6 C 94 % 1023,3 hPa 0,0 l/m 2 min 0 min 0,0 UV-I 142 W/m 0,0 km/h (0 Bft)
15.06.2014 06:32 11,3 C 10,6 C 94 % 1023,2 hPa 0,0 l/m 2 min 0 min 0,0 UV-I 146 W/m 0,0 km/h (0 Bft)
15.06.2014 06:34 11,3 C 10,6 C 94 % 1023,3 hPa 0,0 l/m 2 min 0 min 0,0 UV-I 151 W/m 0,0 km/h (0 Bft)
15.06.2014 06:36 11,4 C 10,6 C 95 % 1023,2 hPa 0,0 l/m 2 min 0 min 0,0 UV-I 158 W/m 0,0 km/h (0 Bft)
15.06.2014 06:38 11,4 C 10,6 C 94 % 1023,1 hPa 0,0 l/m 2 min 0 min 0,0 UV-I 158 W/m 2,1 km/h (1 Bft)
15.06.2014 06:40 11,4 C 10,6 C 94 % 1023,2 hPa 0,0 l/m 2 min 0 min 0,0 UV-I 178 W/m 0,0 km/h (0 Bft)
15.06.2014 06:42 11,4 C 10,6 C 94 % 1023,2 hPa 0,0 l/m 2 min 0 min 0,0 UV-I 182 W/m 0,0 km/h (0 Bft)
15.06.2014 06:44 11,5 C 10,6 C 94 % 1023,3 hPa 0,0 l/m 2 min 0 min 0,0 UV-I 181 W/m 0,0 km/h (0 Bft)
15.06.2014 06:46 11,6 C 10,6 C 94 % 1023,2 hPa 0,0 l/m 2 min 0 min 0,0 UV-I 190 W/m 2,1 km/h (1 Bft)
15.06.2014 06:48 11,6 C 10,6 C 94 % 1023,3 hPa 0,0 l/m 2 min 0 min 0,0 UV-I 199 W/m 0,0 km/h (0 Bft)
15.06.2014 06:50 11,6 C 10,6 C 94 % 1023,2 hPa 0,0 l/m 2 min 0 min 0,0 UV-I 200 W/m 6,3 km/h (2 Bft)
15.06.2014 06:52 11,7 C 11,1 C 94 % 1023,2 hPa 0,0 l/m 2 min 0 min 0,0 UV-I 173 W/m 8,4 km/h (2 Bft)
15.06.2014 06:54 11,7 C 11,1 C 94 % 1023,3 hPa 0,0 l/m 2 min 0 min 0,0 UV-I 145 W/m 0,0 km/h (0 Bft)
15.06.2014 06:56 11,7 C 11,1 C 94 % 1023,2 hPa 0,0 l/m 2 min 0 min 0,0 UV-I 158 W/m 0,0 km/h (0 Bft)
15.06.2014 06:58 11,8 C 11,1 C 94 % 1023,2 hPa 0,0 l/m 2 min 0 min 0,0 UV-I 196 W/m 2,1 km/h (1 Bft)
15.06.2014 07:00 11,9 C 11,1 C 94 % 1023,2 hPa 0,0 l/m 2 min 0 min 0,0 UV-I 211 W/m 4,2 km/h (1 Bft)
15.06.2014 07:02 11,9 C 11,1 C 94 % 1023,2 hPa 0,0 l/m 2 min 0 min 0,0 UV-I 173 W/m 8,4 km/h (2 Bft)
15.06.2014 07:04 11,9 C 11,1 C 94 % 1023,3 hPa 0,0 l/m 2 min 0 min 0,0 UV-I 178 W/m 4,2 km/h (1 Bft)
15.06.2014 07:06 11,9 C 11,1 C 94 % 1023,3 hPa 0,0 l/m 2 min 0 min 0,0 UV-I 178 W/m 10,5 km/h (2 Bft)
15.06.2014 07:08 12,0 C 11,1 C 94 % 1023,3 hPa 0,0 l/m 2 min 0 min 0,0 UV-I 209 W/m 4,2 km/h (1 Bft)
15.06.2014 07:10 12,1 C 11,7 C 94 % 1023,2 hPa 0,0 l/m 2 min 0 min 0,0 UV-I 302 W/m 8,4 km/h (2 Bft)
15.06.2014 07:12 12,1 C 11,7 C 93 % 1023,3 hPa 0,0 l/m 2 min 0 min 0,0 UV-I 225 W/m 10,5 km/h (2 Bft)
15.06.2014 07:14 12,1 C 11,7 C 93 % 1023,3 hPa 0,0 l/m 2 min 0 min 0,0 UV-I 193 W/m 8,4 km/h (2 Bft)
15.06.2014 07:16 12,1 C 11,7 C 93 % 1023,2 hPa 0,0 l/m 2 min 0 min 0,0 UV-I 330 W/m 8,4 km/h (2 Bft)
15.06.2014 07:18 12,1 C 11,7 C 93 % 1023,2 hPa 0,0 l/m 2 min 0 min 0,0 UV-I 313 W/m 6,3 km/h (2 Bft)
15.06.2014 07:20 12,2 C 11,7 C 93 % 1023,3 hPa 0,0 l/m 2 min 0 min 0,0 UV-I 347 W/m 8,4 km/h (2 Bft)
15.06.2014 07:22 12,2 C 11,7 C 93 % 1023,2 hPa 0,0 l/m 2 min 0 min 0,0 UV-I 338 W/m 6,3 km/h (2 Bft)
15.06.2014 07:24 12,3 C 11,7 C 93 % 1023,3 hPa 0,0 l/m 2 min 0 min 0,0 UV-I 354 W/m 6,3 km/h (2 Bft)
15.06.2014 07:26 12,3 C 11,7 C 93 % 1023,3 hPa 0,0 l/m 2 min 0 min 0,0 UV-I 356 W/m 0,0 km/h (0 Bft)
15.06.2014 07:28 12,4 C 11,7 C 92 % 1023,3 hPa 0,0 l/m 2 min 0 min 0,0 UV-I 357 W/m 6,3 km/h (2 Bft)
15.06.2014 07:30 12,5 C 11,7 C 92 % 1023,3 hPa 0,0 l/m 2 min 0 min 0,0 UV-I 357 W/m 2,1 km/h (1 Bft)
15.06.2014 07:32 12,6 C 11,7 C 92 % 1023,3 hPa 0,0 l/m 2 min 0 min 0,0 UV-I 354 W/m 2,1 km/h (1 Bft)
15.06.2014 07:34 12,6 C 11,7 C 92 % 1023,3 hPa 0,0 l/m 2 min 0 min 0,0 UV-I 360 W/m 8,4 km/h (2 Bft)
15.06.2014 07:36 12,7 C 12,2 C 92 % 1023,3 hPa 0,0 l/m 2 min 0 min 0,0 UV-I 374 W/m 8,4 km/h (2 Bft)
15.06.2014 07:38 12,7 C 12,2 C 92 % 1023,3 hPa 0,0 l/m 2 min 0 min 0,0 UV-I 261 W/m 10,5 km/h (2 Bft)
15.06.2014 07:40 12,7 C 12,2 C 92 % 1023,3 hPa 0,0 l/m 2 min 0 min 0,0 UV-I 225 W/m 10,5 km/h (2 Bft)
15.06.2014 07:42 12,8 C 12,2 C 91 % 1023,3 hPa 0,0 l/m 0 min 0 min 0,0 UV-I 175 W/m 12,6 km/h (3 Bft)
15.06.2014 07:44 12,9 C 12,2 C 91 % 1023,4 hPa 0,0 l/m 2 min 0 min 0,0 UV-I 182 W/m 8,4 km/h (2 Bft)
15.06.2014 07:46 12,9 C 12,2 C 91 % 1023,3 hPa 0,0 l/m 2 min 0 min 0,0 UV-I 196 W/m 10,5 km/h (2 Bft)
15.06.2014 07:48 12,9 C 12,2 C 91 % 1023,3 hPa 0,0 l/m 2 min 0 min 0,0 UV-I 190 W/m 10,5 km/h (2 Bft)
15.06.2014 07:50 12,9 C 12,2 C 91 % 1023,3 hPa 0,0 l/m 2 min 0 min 0,0 UV-I 208 W/m 10,5 km/h (2 Bft)
15.06.2014 07:52 12,9 C 12,2 C 91 % 1023,3 hPa 0,0 l/m 2 min 0 min 0,0 UV-I 200 W/m 8,4 km/h (2 Bft)
15.06.2014 07:54 12,9 C 12,2 C 90 % 1023,3 hPa 0,0 l/m 0 min 0 min 0,0 UV-I 184 W/m 12,6 km/h (3 Bft)
15.06.2014 07:56 12,9 C 12,2 C 90 % 1023,3 hPa 0,0 l/m 0 min 0 min 0,0 UV-I 172 W/m 10,5 km/h (2 Bft)
15.06.2014 07:58 12,9 C 12,2 C 90 % 1023,3 hPa 0,0 l/m 0 min 0 min 0,0 UV-I 158 W/m 8,4 km/h (2 Bft)
15.06.2014 08:00 12,9 C 12,2 C 90 % 1023,3 hPa 0,0 l/m 0 min 0 min 0,0 UV-I 172 W/m 12,6 km/h (3 Bft)
15.06.2014 08:02 13,0 C 12,8 C 90 % 1023,3 hPa 0,0 l/m 0 min 0 min 0,0 UV-I 190 W/m 10,5 km/h (2 Bft)
15.06.2014 08:04 13,1 C 12,8 C 90 % 1023,4 hPa 0,0 l/m 0 min 0 min 0,0 UV-I 196 W/m 10,5 km/h (2 Bft)
15.06.2014 08:06 13,1 C 12,8 C 90 % 1023,4 hPa 0,0 l/m 0 min 0 min 0,0 UV-I 167 W/m 10,5 km/h (2 Bft)
15.06.2014 08:08 13,1 C 12,8 C 90 % 1023,4 hPa 0,0 l/m 0 min 0 min 0,0 UV-I 181 W/m 8,4 km/h (2 Bft)
15.06.2014 08:10 13,1 C 12,8 C 90 % 1023,3 hPa 0,0 l/m 0 min 0 min 0,0 UV-I 178 W/m 8,4 km/h (2 Bft)
15.06.2014 08:12 13,2 C 13,3 C 90 % 1023,3 hPa 0,0 l/m 0 min 0 min 0,0 UV-I 187 W/m 10,5 km/h (2 Bft)
15.06.2014 08:14 13,3 C 13,3 C 89 % 1023,3 hPa 0,0 l/m 0 min 0 min 0,0 UV-I 193 W/m 6,3 km/h (2 Bft)
15.06.2014 08:16 13,3 C 12,8 C 89 % 1023,4 hPa 0,0 l/m 0 min 0 min 0,0 UV-I 173 W/m 16,7 km/h (3 Bft)
15.06.2014 08:18 13,3 C 12,8 C 89 % 1023,3 hPa 0,0 l/m 0 min 0 min 0,0 UV-I 187 W/m 16,7 km/h (3 Bft)
15.06.2014 08:20 13,3 C 12,8 C 89 % 1023,4 hPa 0,0 l/m 0 min 0 min 0,0 UV-I 172 W/m 14,6 km/h (3 Bft)
15.06.2014 08:22 13,4 C 13,3 C 89 % 1023,3 hPa 0,0 l/m 0 min 0 min 0,0 UV-I 178 W/m 12,6 km/h (3 Bft)
15.06.2014 08:24 13,4 C 13,3 C 88 % 1023,4 hPa 0,0 l/m 0 min 0 min 0,0 UV-I 190 W/m 18,8 km/h (3 Bft)
15.06.2014 08:26 13,4 C 13,3 C 88 % 1023,4 hPa 0,0 l/m 0 min 0 min 0,0 UV-I 182 W/m 12,6 km/h (3 Bft)
15.06.2014 08:28 13,5 C 13,3 C 88 % 1023,4 hPa 0,0 l/m 0 min 0 min 0,0 UV-I 181 W/m 14,6 km/h (3 Bft)
15.06.2014 08:30 13,5 C 13,3 C 88 % 1023,3 hPa 0,0 l/m 0 min 0 min 0,0 UV-I 193 W/m 12,6 km/h (3 Bft)
15.06.2014 08:32 13,6 C 13,3 C 88 % 1023,4 hPa 0,0 l/m 0 min 0 min 0,0 UV-I 187 W/m 14,6 km/h (3 Bft)
15.06.2014 08:34 13,6 C 13,3 C 88 % 1023,4 hPa 0,0 l/m 0 min 0 min 0,0 UV-I 181 W/m 16,7 km/h (3 Bft)
15.06.2014 08:36 13,6 C 13,3 C 88 % 1023,5 hPa 0,0 l/m 0 min 0 min 0,0 UV-I 187 W/m 14,6 km/h (3 Bft)
15.06.2014 08:38 13,7 C 13,3 C 87 % 1023,4 hPa 0,0 l/m 0 min 0 min 0,0 UV-I 190 W/m 14,6 km/h (3 Bft)
15.06.2014 08:40 13,7 C 13,3 C 87 % 1023,4 hPa 0,0 l/m 0 min 0 min 0,0 UV-I 191 W/m 12,6 km/h (3 Bft)
15.06.2014 08:42 13,8 C 13,3 C 87 % 1023,4 hPa 0,0 l/m 0 min 0 min 0,0 UV-I 181 W/m 16,7 km/h (3 Bft)
15.06.2014 08:44 13,8 C 13,9 C 87 % 1023,4 hPa 0,0 l/m 0 min 0 min 0,0 UV-I 182 W/m 8,4 km/h (2 Bft)
15.06.2014 08:46 13,8 C 13,9 C 87 % 1023,5 hPa 0,0 l/m 0 min 0 min 0,0 UV-I 196 W/m 16,7 km/h (3 Bft)
15.06.2014 08:48 13,9 C 13,9 C 87 % 1023,4 hPa 0,0 l/m 0 min 0 min 0,0 UV-I 232 W/m 14,6 km/h (3 Bft)
15.06.2014 08:50 13,9 C 13,9 C 87 % 1023,3 hPa 0,0 l/m 0 min 0 min 0,0 UV-I 243 W/m 18,8 km/h (3 Bft)
15.06.2014 08:52 13,9 C 13,9 C 86 % 1023,4 hPa 0,0 l/m 0 min 0 min 0,0 UV-I 241 W/m 14,6 km/h (3 Bft)
15.06.2014 08:54 14,0 C 13,9 C 86 % 1023,3 hPa 0,0 l/m 0 min 0 min 0,0 UV-I 243 W/m 14,6 km/h (3 Bft)
15.06.2014 08:56 14,0 C 13,9 C 86 % 1023,4 hPa 0,0 l/m 0 min 0 min 0,0 UV-I 261 W/m 12,6 km/h (3 Bft)
15.06.2014 08:58 14,0 C 13,9 C 86 % 1023,3 hPa 0,0 l/m 0 min 0 min 0,0 UV-I 265 W/m 10,5 km/h (2 Bft)
15.06.2014 09:00 14,2 C 13,9 C 86 % 1023,3 hPa 0,0 l/m 0 min 0 min 0,0 UV-I 268 W/m 16,7 km/h (3 Bft)
15.06.2014 09:02 14,2 C 13,9 C 86 % 1023,3 hPa 0,0 l/m 0 min 0 min 0,0 UV-I 273 W/m 12,6 km/h (3 Bft)
15.06.2014 09:04 14,2 C 13,9 C 85 % 1023,3 hPa 0,0 l/m 2 min 0 min 0,0 UV-I 311 W/m 12,6 km/h (3 Bft)
15.06.2014 09:06 14,2 C 13,9 C 85 % 1023,3 hPa 0,0 l/m 2 min 0 min 0,0 UV-I 309 W/m 10,5 km/h (2 Bft)
15.06.2014 09:08 14,2 C 13,9 C 85 % 1023,3 hPa 0,0 l/m 2 min 0 min 0,0 UV-I 295 W/m 12,6 km/h (3 Bft)
15.06.2014 09:10 14,2 C 14,4 C 85 % 1023,3 hPa 0,0 l/m 0 min 0 min 0,0 UV-I 288 W/m 12,6 km/h (3 Bft)
15.06.2014 09:12 14,3 C 14,4 C 85 % 1023,3 hPa 0,0 l/m 2 min 0 min 0,0 UV-I 315 W/m 12,6 km/h (3 Bft)
15.06.2014 09:14 14,4 C 14,4 C 85 % 1023,4 hPa 0,0 l/m 2 min 0 min 0,0 UV-I 315 W/m 8,4 km/h (2 Bft)
15.06.2014 09:16 14,6 C 15,0 C 85 % 1023,4 hPa 0,0 l/m 2 min 0 min 0,0 UV-I 313 W/m 16,7 km/h (3 Bft)
15.06.2014 09:18 14,7 C 15,0 C 84 % 1023,4 hPa 0,0 l/m 0 min 0 min 0,0 UV-I 286 W/m 16,7 km/h (3 Bft)
15.06.2014 09:20 14,6 C 15,0 C 83 % 1023,5 hPa 0,0 l/m 0 min 0 min 0,0 UV-I 286 W/m 16,7 km/h (3 Bft)
15.06.2014 09:22 14,5 C 14,4 C 83 % 1023,5 hPa 0,0 l/m 0 min 0 min 0,0 UV-I 283 W/m 16,7 km/h (3 Bft)
15.06.2014 09:24 14,4 C 14,4 C 83 % 1023,5 hPa 0,0 l/m 0 min 0 min 0,0 UV-I 286 W/m 16,7 km/h (3 Bft)
15.06.2014 09:26 14,4 C 14,4 C 83 % 1023,5 hPa 0,0 l/m 0 min 0 min 0,0 UV-I 256 W/m 14,6 km/h (3 Bft)
15.06.2014 09:28 14,4 C 14,4 C 83 % 1023,5 hPa 0,0 l/m 0 min 0 min 0,0 UV-I 274 W/m 12,6 km/h (3 Bft)
15.06.2014 09:30 14,4 C 14,4 C 83 % 1023,5 hPa 0,0 l/m 0 min 0 min 0,0 UV-I 300 W/m 8,4 km/h (2 Bft)
15.06.2014 09:32 14,4 C 14,4 C 84 % 1023,5 hPa 0,0 l/m 2 min 0 min 0,0 UV-I 339 W/m 10,5 km/h (2 Bft)
15.06.2014 09:34 14,6 C 15,0 C 84 % 1023,5 hPa 0,0 l/m 0 min 0 min 0,0 UV-I 256 W/m 12,6 km/h (3 Bft)
15.06.2014 09:36 14,7 C 14,4 C 83 % 1023,5 hPa 0,0 l/m 0 min 0 min 0,0 UV-I 200 W/m 12,6 km/h (3 Bft)
15.06.2014 09:38 14,6 C 14,4 C 83 % 1023,5 hPa 0,0 l/m 0 min 0 min 0,0 UV-I 190 W/m 8,4 km/h (2 Bft)
15.06.2014 09:40 14,6 C 14,4 C 83 % 1023,4 hPa 0,0 l/m 0 min 0 min 0,0 UV-I 187 W/m 12,6 km/h (3 Bft)
15.06.2014 09:42 14,4 C 14,4 C 83 % 1023,5 hPa 0,0 l/m 0 min 0 min 0,0 UV-I 182 W/m 12,6 km/h (3 Bft)
15.06.2014 09:44 14,4 C 14,4 C 83 % 1023,5 hPa 0,0 l/m 0 min 0 min 0,0 UV-I 181 W/m 10,5 km/h (2 Bft)
15.06.2014 09:46 14,4 C 14,4 C 84 % 1023,6 hPa 0,0 l/m 0 min 0 min 0,0 UV-I 172 W/m 8,4 km/h (2 Bft)
15.06.2014 09:48 14,4 C 14,4 C 84 % 1023,6 hPa 0,0 l/m 0 min 0 min 0,0 UV-I 167 W/m 14,6 km/h (3 Bft)
15.06.2014 09:50 14,5 C 14,4 C 83 % 1023,6 hPa 0,0 l/m 0 min 0 min 0,0 UV-I 164 W/m 14,6 km/h (3 Bft)
15.06.2014 09:52 14,5 C 14,4 C 84 % 1023,6 hPa 0,0 l/m 0 min 0 min 0,0 UV-I 167 W/m 12,6 km/h (3 Bft)
15.06.2014 09:54 14,5 C 14,4 C 84 % 1023,6 hPa 0,0 l/m 0 min 0 min 0,0 UV-I 184 W/m 16,7 km/h (3 Bft)
15.06.2014 09:56 14,5 C 14,4 C 84 % 1023,6 hPa 0,0 l/m 0 min 0 min 0,0 UV-I 211 W/m 8,4 km/h (2 Bft)
15.06.2014 09:58 14,6 C 14,4 C 85 % 1023,6 hPa 0,0 l/m 0 min 0 min 0,0 UV-I 246 W/m 10,5 km/h (2 Bft)
15.06.2014 10:00 14,7 C 15,0 C 85 % 1023,6 hPa 0,0 l/m 0 min 0 min 0,0 UV-I 265 W/m 0,0 km/h (0 Bft)
15.06.2014 10:02 14,8 C 15,0 C 84 % 1023,6 hPa 0,0 l/m 0 min 0 min 0,0 UV-I 277 W/m 10,5 km/h (2 Bft)
15.06.2014 10:04 14,8 C 15,0 C 84 % 1023,6 hPa 0,0 l/m 0 min 0 min 0,0 UV-I 277 W/m 8,4 km/h (2 Bft)
15.06.2014 10:06 14,9 C 15,6 C 84 % 1023,6 hPa 0,0 l/m 0 min 0 min 0,0 UV-I 293 W/m 8,4 km/h (2 Bft)
15.06.2014 10:08 14,9 C 15,6 C 83 % 1023,6 hPa 0,0 l/m 0 min 0 min 0,0 UV-I 306 W/m 12,6 km/h (3 Bft)
15.06.2014 10:10 14,9 C 15,6 C 83 % 1023,6 hPa 0,0 l/m 2 min 0 min 0,0 UV-I 377 W/m 14,6 km/h (3 Bft)
15.06.2014 10:12 15,2 C 15,6 C 83 % 1023,6 hPa 0,0 l/m 2 min 0 min 0,0 UV-I 419 W/m 18,8 km/h (3 Bft)
15.06.2014 10:14 15,3 C 15,6 C 81 % 1023,6 hPa 0,0 l/m 2 min 0 min 0,5 UV-I 451 W/m 16,7 km/h (3 Bft)
15.06.2014 10:16 15,3 C 16,1 C 80 % 1023,6 hPa 0,0 l/m 2 min 0 min 0,5 UV-I 478 W/m 10,5 km/h (2 Bft)
15.06.2014 10:18 15,3 C 16,1 C 79 % 1023,6 hPa 0,0 l/m 2 min 0 min 0,6 UV-I 509 W/m 12,6 km/h (3 Bft)
15.06.2014 10:20 15,5 C 16,1 C 80 % 1023,6 hPa 0,0 l/m 2 min 0 min 0,6 UV-I 561 W/m 18,8 km/h (3 Bft)
15.06.2014 10:22 15,6 C 16,7 C 80 % 1023,6 hPa 0,0 l/m 2 min 0 min 0,5 UV-I 544 W/m 10,5 km/h (2 Bft)
15.06.2014 10:24 15,7 C 16,7 C 80 % 1023,7 hPa 0,0 l/m 2 min 0 min 0,0 UV-I 464 W/m 10,5 km/h (2 Bft)
15.06.2014 10:26 15,7 C 16,1 C 79 % 1023,7 hPa 0,0 l/m 2 min 0 min 0,0 UV-I 442 W/m 14,6 km/h (3 Bft)
15.06.2014 10:28 15,7 C 16,1 C 80 % 1023,7 hPa 0,0 l/m 2 min 0 min 0,0 UV-I 407 W/m 12,6 km/h (3 Bft)
15.06.2014 10:30 15,7 C 16,1 C 80 % 1023,7 hPa 0,0 l/m 2 min 0 min 0,0 UV-I 421 W/m 10,5 km/h (2 Bft)
15.06.2014 10:32 15,7 C 16,1 C 79 % 1023,6 hPa 0,0 l/m 0 min 0 min 0,0 UV-I 340 W/m 14,6 km/h (3 Bft)
15.06.2014 10:34 15,7 C 16,1 C 79 % 1023,6 hPa 0,0 l/m 0 min 0 min 0,0 UV-I 371 W/m 18,8 km/h (3 Bft)
15.06.2014 10:36 15,7 C 16,1 C 78 % 1023,6 hPa 0,0 l/m 2 min 0 min 0,0 UV-I 403 W/m 16,7 km/h (3 Bft)
15.06.2014 10:38 15,6 C 16,1 C 79 % 1023,6 hPa 0,0 l/m 0 min 0 min 0,0 UV-I 336 W/m 10,5 km/h (2 Bft)
15.06.2014 10:40 15,7 C 16,1 C 79 % 1023,6 hPa 0,0 l/m 0 min 0 min 0,0 UV-I 338 W/m 16,7 km/h (3 Bft)
15.06.2014 10:42 15,7 C 16,1 C 78 % 1023,6 hPa 0,0 l/m 0 min 0 min 0,0 UV-I 352 W/m 12,6 km/h (3 Bft)
15.06.2014 10:44 15,7 C 16,1 C 78 % 1023,7 hPa 0,0 l/m 2 min 0 min 0,7 UV-I 429 W/m 8,4 km/h (2 Bft)
15.06.2014 10:46 15,8 C 16,7 C 79 % 1023,7 hPa 0,0 l/m 2 min 0 min 1,1 UV-I 457 W/m 18,8 km/h (3 Bft)
15.06.2014 10:48 16,1 C 17,2 C 78 % 1023,6 hPa 0,0 l/m 2 min 0 min 1,1 UV-I 614 W/m 12,6 km/h (3 Bft)
15.06.2014 10:50 16,4 C 18,3 C 78 % 1023,6 hPa 0,0 l/m 2 min 0 min 1,8 UV-I 614 W/m 10,5 km/h (2 Bft)
15.06.2014 10:52 16,6 C 18,3 C 77 % 1023,6 hPa 0,0 l/m 2 min 0 min 0,9 UV-I 497 W/m 20,9 km/h (4 Bft)
15.06.2014 10:54 16,7 C 18,3 C 76 % 1023,6 hPa 0,0 l/m 2 min 0 min 1,5 UV-I 664 W/m 18,8 km/h (3 Bft)
15.06.2014 10:56 16,7 C 18,3 C 76 % 1023,6 hPa 0,0 l/m 2 min 0 min 1,0 UV-I 664 W/m 14,6 km/h (3 Bft)
15.06.2014 10:58 16,7 C 18,9 C 76 % 1023,6 hPa 0,0 l/m 2 min 0 min 0,6 UV-I 664 W/m 14,6 km/h (3 Bft)
15.06.2014 11:00 16,8 C 18,3 C 75 % 1023,7 hPa 0,0 l/m 0 min 0 min 0,5 UV-I 384 W/m 10,5 km/h (2 Bft)
15.06.2014 11:02 16,7 C 17,8 C 76 % 1023,7 hPa 0,0 l/m 0 min 0 min 0,5 UV-I 354 W/m 16,7 km/h (3 Bft)
15.06.2014 11:04 16,5 C 17,2 C 76 % 1023,6 hPa 0,0 l/m 0 min 0 min 0,5 UV-I 305 W/m 14,6 km/h (3 Bft)
15.06.2014 11:06 16,3 C 16,7 C 76 % 1023,6 hPa 0,0 l/m 0 min 0 min 0,6 UV-I 315 W/m 10,5 km/h (2 Bft)
15.06.2014 11:08 16,4 C 17,2 C 77 % 1023,6 hPa 0,0 l/m 0 min 0 min 0,6 UV-I 317 W/m 14,6 km/h (3 Bft)
15.06.2014 11:10 16,2 C 16,7 C 76 % 1023,6 hPa 0,0 l/m 0 min 0 min 0,7 UV-I 352 W/m 16,7 km/h (3 Bft)
15.06.2014 11:12 16,1 C 17,2 C 77 % 1023,6 hPa 0,0 l/m 0 min 0 min 2,0 UV-I 352 W/m 12,6 km/h (3 Bft)
15.06.2014 11:14 16,3 C 17,8 C 78 % 1023,5 hPa 0,0 l/m 2 min 0 min 1,5 UV-I 430 W/m 16,7 km/h (3 Bft)
15.06.2014 11:16 16,5 C 18,3 C 77 % 1023,6 hPa 0,0 l/m 2 min 0 min 1,5 UV-I 443 W/m 18,8 km/h (3 Bft)
15.06.2014 11:18 16,6 C 19,4 C 75 % 1023,6 hPa 0,0 l/m 2 min 0 min 2,1 UV-I 1048 W/m 18,8 km/h (3 Bft)
15.06.2014 11:20 16,8 C 21,1 C 75 % 1023,5 hPa 0,0 l/m 2 min 0 min 2,1 UV-I 1049 W/m 12,6 km/h (3 Bft)
15.06.2014 11:22 17,3 C 22,2 C 76 % 1023,5 hPa 0,0 l/m 2 min 0 min 2,2 UV-I 1099 W/m 8,4 km/h (2 Bft)
15.06.2014 11:24 17,6 C 23,3 C 73 % 1023,5 hPa 0,0 l/m 2 min 0 min 2,3 UV-I 1099 W/m 10,5 km/h (2 Bft)
15.06.2014 11:26 17,8 C 21,7 C 73 % 1023,5 hPa 0,0 l/m 2 min 0 min 0,9 UV-I 1099 W/m 25,1 km/h (4 Bft)
15.06.2014 11:28 17,6 C 20,0 C 71 % 1023,5 hPa 0,0 l/m 0 min 0 min 1,2 UV-I 422 W/m 18,8 km/h (3 Bft)
15.06.2014 11:30 17,4 C 20,0 C 71 % 1023,5 hPa 0,0 l/m 0 min 0 min 2,4 UV-I 422 W/m 14,6 km/h (3 Bft)
15.06.2014 11:32 17,4 C 20,6 C 73 % 1023,5 hPa 0,0 l/m 0 min 0 min 1,3 UV-I 422 W/m 12,6 km/h (3 Bft)
15.06.2014 11:34 17,5 C 20,0 C 72 % 1023,5 hPa 0,0 l/m 0 min 0 min 1,7 UV-I 422 W/m 18,8 km/h (3 Bft)
15.06.2014 11:36 17,3 C 19,4 C 71 % 1023,5 hPa 0,0 l/m 0 min 0 min 1,0 UV-I 422 W/m 14,6 km/h (3 Bft)
15.06.2014 11:38 17,5 C 20,0 C 74 % 1023,5 hPa 0,0 l/m 2 min 0 min 2,4 UV-I 1126 W/m 10,5 km/h (2 Bft)
15.06.2014 11:40 17,9 C 21,1 C 73 % 1023,5 hPa 0,0 l/m 2 min 0 min 2,4 UV-I 1148 W/m 12,6 km/h (3 Bft)
15.06.2014 11:42 18,1 C 22,8 C 71 % 1023,5 hPa 0,0 l/m 2 min 0 min 2,5 UV-I 1221 W/m 14,6 km/h (3 Bft)
15.06.2014 11:44 18,3 C 23,3 C 71 % 1023,5 hPa 0,0 l/m 2 min 0 min 2,3 UV-I 1181 W/m 12,6 km/h (3 Bft)
15.06.2014 11:46 18,3 C 22,2 C 71 % 1023,5 hPa 0,0 l/m 0 min 0 min 0,7 UV-I 325 W/m 4,2 km/h (1 Bft)
15.06.2014 11:48 18,1 C 20,6 C 70 % 1023,5 hPa 0,0 l/m 0 min 0 min 0,7 UV-I 323 W/m 20,9 km/h (4 Bft)
15.06.2014 11:50 17,9 C 19,4 C 70 % 1023,5 hPa 0,0 l/m 0 min 0 min 0,7 UV-I 289 W/m 20,9 km/h (4 Bft)
15.06.2014 11:52 17,6 C 18,9 C 70 % 1023,5 hPa 0,0 l/m 0 min 0 min 0,9 UV-I 320 W/m 14,6 km/h (3 Bft)
15.06.2014 11:54 17,4 C 18,3 C 71 % 1023,5 hPa 0,0 l/m 0 min 0 min 0,9 UV-I 251 W/m 12,6 km/h (3 Bft)
15.06.2014 11:56 17,4 C 20,0 C 73 % 1023,5 hPa 0,0 l/m 2 min 0 min 2,5 UV-I 1104 W/m 18,8 km/h (3 Bft)
15.06.2014 11:58 17,6 C 22,2 C 72 % 1023,5 hPa 0,0 l/m 2 min 0 min 2,6 UV-I 1132 W/m 12,6 km/h (3 Bft)
15.06.2014 12:00 17,7 C 23,3 C 71 % 1023,5 hPa 0,0 l/m 2 min 0 min 2,6 UV-I 1160 W/m 16,7 km/h (3 Bft)
15.06.2014 12:02 17,9 C 23,9 C 70 % 1023,5 hPa 0,0 l/m 2 min 0 min 2,7 UV-I 1233 W/m 10,5 km/h (2 Bft)
15.06.2014 12:06 18,2 C 22,2 C 70 % 1023,5 hPa 0,0 l/m 0 min 0 min 0,7 UV-I 344 W/m 18,8 km/h (3 Bft)
15.06.2014 12:08 17,9 C 20,6 C 70 % 1023,5 hPa 0,0 l/m 0 min 0 min 0,7 UV-I 313 W/m 20,9 km/h (4 Bft)
15.06.2014 12:10 17,7 C 19,4 C 70 % 1023,5 hPa 0,0 l/m 0 min 0 min 0,9 UV-I 350 W/m 18,8 km/h (3 Bft)
15.06.2014 12:12 17,6 C 21,1 C 72 % 1023,5 hPa 0,0 l/m 2 min 0 min 2,2 UV-I 1248 W/m 16,7 km/h (3 Bft)
15.06.2014 12:14 17,6 C 21,1 C 72 % 1023,5 hPa 0,0 l/m 2 min 0 min 1,5 UV-I 1248 W/m 18,8 km/h (3 Bft)
15.06.2014 12:16 17,7 C 21,1 C 71 % 1023,5 hPa 0,0 l/m 2 min 0 min 1,3 UV-I 1248 W/m 16,7 km/h (3 Bft)
15.06.2014 12:18 17,8 C 20,6 C 71 % 1023,5 hPa 0,0 l/m 2 min 0 min 1,0 UV-I 523 W/m 14,6 km/h (3 Bft)
15.06.2014 12:20 17,9 C 20,0 C 71 % 1023,5 hPa 0,0 l/m 0 min 0 min 1,1 UV-I 321 W/m 16,7 km/h (3 Bft)
15.06.2014 12:22 17,8 C 19,4 C 71 % 1023,5 hPa 0,0 l/m 0 min 0 min 2,0 UV-I 358 W/m 10,5 km/h (2 Bft)
15.06.2014 12:24 17,9 C 21,1 C 71 % 1023,4 hPa 0,0 l/m 0 min 0 min 1,8 UV-I 304 W/m 14,6 km/h (3 Bft)
15.06.2014 12:26 18,2 C 22,2 C 71 % 1023,4 hPa 0,0 l/m 0 min 0 min 1,4 UV-I 304 W/m 16,7 km/h (3 Bft)
15.06.2014 12:28 18,3 C 21,7 C 68 % 1023,4 hPa 0,0 l/m 0 min 0 min 1,2 UV-I 304 W/m 14,6 km/h (3 Bft)
15.06.2014 12:30 18,2 C 22,2 C 67 % 1023,4 hPa 0,0 l/m 2 min 0 min 2,0 UV-I 1080 W/m 14,6 km/h (3 Bft)
15.06.2014 12:32 18,4 C 22,8 C 69 % 1023,4 hPa 0,0 l/m 2 min 0 min 2,7 UV-I 1116 W/m 18,8 km/h (3 Bft)
15.06.2014 12:34 18,4 C 23,3 C 70 % 1023,3 hPa 0,0 l/m 2 min 0 min 2,7 UV-I 1144 W/m 16,7 km/h (3 Bft)
15.06.2014 12:36 18,7 C 23,9 C 69 % 1023,3 hPa 0,0 l/m 2 min 0 min 2,7 UV-I 1193 W/m 18,8 km/h (3 Bft)
15.06.2014 12:38 18,8 C 22,8 C 68 % 1023,3 hPa 0,0 l/m 0 min 0 min 1,0 UV-I 325 W/m 20,9 km/h (4 Bft)
15.06.2014 12:40 18,6 C 22,2 C 69 % 1023,3 hPa 0,0 l/m 0 min 0 min 2,1 UV-I 374 W/m 16,7 km/h (3 Bft)
15.06.2014 12:42 18,4 C 21,1 C 68 % 1023,3 hPa 0,0 l/m 0 min 0 min 1,1 UV-I 389 W/m 16,7 km/h (3 Bft)
15.06.2014 12:44 18,4 C 21,1 C 70 % 1023,2 hPa 0,0 l/m 0 min 0 min 1,2 UV-I 389 W/m 16,7 km/h (3 Bft)
15.06.2014 12:46 18,3 C 20,6 C 69 % 1023,3 hPa 0,0 l/m 0 min 0 min 1,1 UV-I 321 W/m 18,8 km/h (3 Bft)
15.06.2014 12:48 18,2 C 19,4 C 68 % 1023,3 hPa 0,0 l/m 0 min 0 min 1,1 UV-I 321 W/m 18,8 km/h (3 Bft)
15.06.2014 12:50 18,2 C 20,0 C 68 % 1023,3 hPa 0,0 l/m 2 min 0 min 2,8 UV-I 1142 W/m 18,8 km/h (3 Bft)
15.06.2014 12:52 18,3 C 20,6 C 68 % 1023,3 hPa 0,0 l/m 2 min 0 min 1,6 UV-I 1166 W/m 20,9 km/h (4 Bft)
15.06.2014 12:54 18,6 C 20,6 C 68 % 1023,3 hPa 0,0 l/m 2 min 0 min 1,5 UV-I 1166 W/m 18,8 km/h (3 Bft)
15.06.2014 12:56 18,6 C 20,6 C 66 % 1023,3 hPa 0,0 l/m 2 min 0 min 1,5 UV-I 1097 W/m 18,8 km/h (3 Bft)
15.06.2014 12:58 18,8 C 21,1 C 65 % 1023,3 hPa 0,0 l/m 2 min 0 min 2,3 UV-I 998 W/m 14,6 km/h (3 Bft)
15.06.2014 13:00 19,3 C 22,2 C 66 % 1023,3 hPa 0,0 l/m 2 min 0 min 2,7 UV-I 1065 W/m 8,4 km/h (2 Bft)
15.06.2014 13:02 19,7 C 22,2 C 66 % 1023,3 hPa 0,0 l/m 2 min 0 min 2,8 UV-I 1088 W/m 18,8 km/h (3 Bft)
15.06.2014 13:04 19,6 C 21,7 C 64 % 1023,2 hPa 0,0 l/m 2 min 0 min 2,8 UV-I 1091 W/m 16,7 km/h (3 Bft)
15.06.2014 13:06 19,6 C 21,7 C 64 % 1023,2 hPa 0,0 l/m 2 min 0 min 2,9 UV-I 1148 W/m 18,8 km/h (3 Bft)
15.06.2014 13:08 19,4 C 22,2 C 65 % 1023,3 hPa 0,0 l/m 2 min 0 min 2,7 UV-I 1198 W/m 23,0 km/h (4 Bft)
15.06.2014 13:10 19,3 C 21,7 C 65 % 1023,2 hPa 0,0 l/m 2 min 0 min 0,9 UV-I 1198 W/m 16,7 km/h (3 Bft)
15.06.2014 13:12 19,2 C 21,1 C 67 % 1023,2 hPa 0,0 l/m 0 min 0 min 0,9 UV-I 229 W/m 4,2 km/h (1 Bft)
15.06.2014 13:14 19,1 C 20,0 C 65 % 1023,2 hPa 0,0 l/m 0 min 0 min 1,0 UV-I 269 W/m 10,5 km/h (2 Bft)
15.06.2014 13:16 18,8 C 21,1 C 65 % 1023,2 hPa 0,0 l/m 2 min 0 min 2,8 UV-I 1166 W/m 14,6 km/h (3 Bft)
15.06.2014 13:18 19,1 C 21,7 C 68 % 1023,2 hPa 0,0 l/m 2 min 0 min 2,9 UV-I 1187 W/m 14,6 km/h (3 Bft)
15.06.2014 13:20 19,4 C 21,7 C 67 % 1023,1 hPa 0,0 l/m 2 min 0 min 2,9 UV-I 1176 W/m 12,6 km/h (3 Bft)
15.06.2014 13:22 19,6 C 21,1 C 63 % 1023,2 hPa 0,0 l/m 2 min 0 min 1,2 UV-I 1176 W/m 14,6 km/h (3 Bft)
15.06.2014 13:24 19,4 C 21,1 C 65 % 1023,1 hPa 0,0 l/m 2 min 0 min 2,0 UV-I 1176 W/m 16,7 km/h (3 Bft)
15.06.2014 13:26 19,6 C 21,1 C 66 % 1023,1 hPa 0,0 l/m 0 min 0 min 0,9 UV-I 346 W/m 16,7 km/h (3 Bft)
15.06.2014 13:28 19,7 C 20,6 C 64 % 1023,1 hPa 0,0 l/m 0 min 0 min 0,7 UV-I 261 W/m 23,0 km/h (4 Bft)
15.06.2014 13:30 19,3 C 19,4 C 64 % 1023,1 hPa 0,0 l/m 0 min 0 min 0,6 UV-I 194 W/m 16,7 km/h (3 Bft)
15.06.2014 13:32 18,9 C 18,9 C 65 % 1023,2 hPa 0,0 l/m 0 min 0 min 0,8 UV-I 198 W/m 20,9 km/h (4 Bft)
15.06.2014 13:34 18,6 C 18,9 C 63 % 1023,2 hPa 0,0 l/m 0 min 0 min 2,7 UV-I 198 W/m 20,9 km/h (4 Bft)
15.06.2014 13:36 18,7 C 19,4 C 64 % 1023,2 hPa 0,0 l/m 2 min 0 min 2,8 UV-I 1081 W/m 18,8 km/h (3 Bft)
15.06.2014 13:38 19,3 C 20,0 C 66 % 1023,1 hPa 0,0 l/m 2 min 0 min 2,8 UV-I 1094 W/m 8,4 km/h (2 Bft)
15.06.2014 13:40 19,7 C 20,6 C 64 % 1023,1 hPa 0,0 l/m 2 min 0 min 2,8 UV-I 1112 W/m 14,6 km/h (3 Bft)
15.06.2014 13:42 20,1 C 21,1 C 66 % 1023,0 hPa 0,0 l/m 2 min 0 min 2,8 UV-I 1156 W/m 12,6 km/h (3 Bft)
15.06.2014 13:44 20,3 C 21,1 C 63 % 1023,1 hPa 0,0 l/m 2 min 0 min 2,8 UV-I 1176 W/m 23,0 km/h (4 Bft)
15.06.2014 13:46 20,4 C 21,1 C 62 % 1023,1 hPa 0,0 l/m 2 min 0 min 1,0 UV-I 1176 W/m 23,0 km/h (4 Bft)
15.06.2014 13:48 19,8 C 20,0 C 61 % 1023,1 hPa 0,0 l/m 0 min 0 min 0,8 UV-I 243 W/m 25,1 km/h (4 Bft)
15.06.2014 13:50 19,4 C 19,4 C 62 % 1023,0 hPa 0,0 l/m 0 min 0 min 0,8 UV-I 216 W/m 14,6 km/h (3 Bft)
15.06.2014 13:52 19,1 C 19,4 C 64 % 1023,1 hPa 0,0 l/m 0 min 0 min 2,6 UV-I 206 W/m 18,8 km/h (3 Bft)
15.06.2014 13:54 19,1 C 20,0 C 65 % 1023,0 hPa 0,0 l/m 2 min 0 min 2,6 UV-I 1035 W/m 16,7 km/h (3 Bft)
15.06.2014 13:56 19,3 C 20,6 C 64 % 1023,0 hPa 0,0 l/m 2 min 0 min 2,6 UV-I 1045 W/m 12,6 km/h (3 Bft)
15.06.2014 13:58 19,6 C 21,1 C 67 % 1022,9 hPa 0,0 l/m 2 min 0 min 2,7 UV-I 1045 W/m 10,5 km/h (2 Bft)
15.06.2014 14:00 20,1 C 21,1 C 65 % 1023,0 hPa 0,0 l/m 2 min 0 min 2,7 UV-I 1051 W/m 14,6 km/h (3 Bft)
15.06.2014 14:02 20,1 C 21,1 C 63 % 1023,0 hPa 0,0 l/m 2 min 0 min 2,7 UV-I 973 W/m 27,2 km/h (4 Bft)
15.06.2014 14:04 20,1 C 21,7 C 64 % 1023,0 hPa 0,0 l/m 2 min 0 min 2,6 UV-I 1067 W/m 16,7 km/h (3 Bft)
15.06.2014 14:06 20,1 C 21,7 C 63 % 1023,0 hPa 0,0 l/m 2 min 0 min 2,6 UV-I 1049 W/m 18,8 km/h (3 Bft)
15.06.2014 14:08 20,3 C 22,8 C 64 % 1023,0 hPa 0,0 l/m 2 min 0 min 2,5 UV-I 1030 W/m 20,9 km/h (4 Bft)
15.06.2014 14:10 20,4 C 23,9 C 62 % 1023,0 hPa 0,0 l/m 2 min 0 min 2,5 UV-I 1022 W/m 20,9 km/h (4 Bft)
15.06.2014 14:12 20,6 C 25,6 C 63 % 1022,9 hPa 0,0 l/m 2 min 0 min 2,6 UV-I 1041 W/m 14,6 km/h (3 Bft)
15.06.2014 14:14 20,8 C 27,2 C 65 % 1022,9 hPa 0,0 l/m 2 min 0 min 2,6 UV-I 1067 W/m 12,6 km/h (3 Bft)
15.06.2014 14:16 21,0 C 27,2 C 61 % 1023,0 hPa 0,0 l/m 2 min 0 min 2,3 UV-I 1041 W/m 23,0 km/h (4 Bft)
15.06.2014 14:18 20,7 C 27,2 C 59 % 1023,0 hPa 0,0 l/m 2 min 0 min 2,5 UV-I 1025 W/m 25,1 km/h (4 Bft)
15.06.2014 14:20 20,6 C 27,2 C 60 % 1022,9 hPa 0,0 l/m 2 min 0 min 2,5 UV-I 1061 W/m 18,8 km/h (3 Bft)
15.06.2014 14:22 20,6 C 26,7 C 59 % 1022,9 hPa 0,0 l/m 2 min 0 min 2,2 UV-I 781 W/m 16,7 km/h (3 Bft)
15.06.2014 14:24 20,5 C 26,7 C 61 % 1022,9 hPa 0,0 l/m 2 min 0 min 2,6 UV-I 1097 W/m 18,8 km/h (3 Bft)
15.06.2014 14:26 20,8 C 27,8 C 61 % 1022,8 hPa 0,0 l/m 2 min 0 min 2,5 UV-I 1086 W/m 14,6 km/h (3 Bft)
15.06.2014 14:28 20,9 C 27,8 C 60 % 1022,9 hPa 0,0 l/m 2 min 0 min 2,5 UV-I 1116 W/m 29,3 km/h (5 Bft)
15.06.2014 14:30 20,7 C 27,2 C 58 % 1022,8 hPa 0,0 l/m 2 min 0 min 2,4 UV-I 1134 W/m 23,0 km/h (4 Bft)
15.06.2014 14:32 20,5 C 25,0 C 59 % 1022,8 hPa 0,0 l/m 0 min 0 min 1,0 UV-I 354 W/m 18,8 km/h (3 Bft)
15.06.2014 14:34 20,3 C 22,8 C 59 % 1022,8 hPa 0,0 l/m 0 min 0 min 0,9 UV-I 297 W/m 20,9 km/h (4 Bft)
15.06.2014 14:36 20,0 C 21,7 C 59 % 1022,8 hPa 0,0 l/m 0 min 0 min 0,9 UV-I 313 W/m 14,6 km/h (3 Bft)
15.06.2014 14:38 19,8 C 21,1 C 59 % 1022,7 hPa 0,0 l/m 0 min 0 min 1,0 UV-I 313 W/m 14,6 km/h (3 Bft)
15.06.2014 14:40 19,8 C 21,1 C 59 % 1022,7 hPa 0,0 l/m 0 min 0 min 1,5 UV-I 421 W/m 12,6 km/h (3 Bft)
15.06.2014 14:42 19,8 C 21,7 C 60 % 1022,7 hPa 0,0 l/m 0 min 0 min 2,0 UV-I 421 W/m 10,5 km/h (2 Bft)
15.06.2014 14:44 19,9 C 21,7 C 61 % 1022,7 hPa 0,0 l/m 2 min 0 min 2,4 UV-I 1097 W/m 16,7 km/h (3 Bft)
15.06.2014 14:46 20,1 C 22,2 C 60 % 1022,6 hPa 0,0 l/m 2 min 0 min 2,4 UV-I 1140 W/m 14,6 km/h (3 Bft)
15.06.2014 14:48 20,4 C 22,8 C 60 % 1022,6 hPa 0,0 l/m 2 min 0 min 2,3 UV-I 1150 W/m 23,0 km/h (4 Bft)
15.06.2014 14:50 20,7 C 22,2 C 58 % 1022,6 hPa 0,0 l/m 0 min 0 min 0,9 UV-I 334 W/m 20,9 km/h (4 Bft)
15.06.2014 14:52 20,6 C 21,7 C 59 % 1022,7 hPa 0,0 l/m 0 min 0 min 0,9 UV-I 352 W/m 23,0 km/h (4 Bft)
15.06.2014 14:54 20,3 C 21,1 C 59 % 1022,7 hPa 0,0 l/m 0 min 0 min 0,7 UV-I 352 W/m 23,0 km/h (4 Bft)
15.06.2014 14:56 20,1 C 20,6 C 60 % 1022,6 hPa 0,0 l/m 0 min 0 min 0,7 UV-I 296 W/m 27,2 km/h (4 Bft)
15.06.2014 14:58 19,9 C 20,6 C 60 % 1022,6 hPa 0,0 l/m 0 min 0 min 1,8 UV-I 352 W/m 18,8 km/h (3 Bft)
15.06.2014 15:00 19,9 C 21,1 C 61 % 1022,6 hPa 0,0 l/m 2 min 0 min 2,2 UV-I 1072 W/m 20,9 km/h (4 Bft)
15.06.2014 15:02 20,0 C 21,1 C 59 % 1022,6 hPa 0,0 l/m 2 min 0 min 2,1 UV-I 1021 W/m 20,9 km/h (4 Bft)
15.06.2014 15:04 20,0 C 21,7 C 59 % 1022,7 hPa 0,0 l/m 2 min 0 min 2,0 UV-I 958 W/m 18,8 km/h (3 Bft)
15.06.2014 15:06 20,2 C 22,8 C 59 % 1022,6 hPa 0,0 l/m 2 min 0 min 2,1 UV-I 976 W/m 18,8 km/h (3 Bft)
15.06.2014 15:08 20,2 C 23,3 C 59 % 1022,5 hPa 0,0 l/m 2 min 0 min 2,1 UV-I 976 W/m 16,7 km/h (3 Bft)
15.06.2014 15:10 20,3 C 24,4 C 59 % 1022,6 hPa 0,0 l/m 2 min 0 min 2,1 UV-I 973 W/m 16,7 km/h (3 Bft)
15.06.2014 15:12 20,6 C 25,6 C 61 % 1022,5 hPa 0,0 l/m 2 min 0 min 2,1 UV-I 995 W/m 16,7 km/h (3 Bft)
15.06.2014 15:14 20,8 C 26,7 C 59 % 1022,5 hPa 0,0 l/m 2 min 0 min 2,1 UV-I 1017 W/m 10,5 km/h (2 Bft)
15.06.2014 15:16 20,7 C 26,1 C 57 % 1022,5 hPa 0,0 l/m 2 min 0 min 2,1 UV-I 1029 W/m 16,7 km/h (3 Bft)
15.06.2014 15:18 20,8 C 27,2 C 58 % 1022,5 hPa 0,0 l/m 2 min 0 min 2,1 UV-I 1075 W/m 23,0 km/h (4 Bft)
15.06.2014 15:20 21,0 C 27,2 C 59 % 1022,6 hPa 0,0 l/m 2 min 0 min 2,0 UV-I 1081 W/m 20,9 km/h (4 Bft)
15.06.2014 15:22 21,4 C 27,8 C 58 % 1022,5 hPa 0,0 l/m 2 min 0 min 0,9 UV-I 1059 W/m 16,7 km/h (3 Bft)
15.06.2014 15:24 21,1 C 25,6 C 56 % 1022,5 hPa 0,0 l/m 0 min 0 min 0,7 UV-I 264 W/m 10,5 km/h (2 Bft)
15.06.2014 15:26 20,8 C 23,3 C 58 % 1022,6 hPa 0,0 l/m 0 min 0 min 0,7 UV-I 246 W/m 23,0 km/h (4 Bft)
15.06.2014 15:28 20,4 C 22,2 C 58 % 1022,5 hPa 0,0 l/m 0 min 0 min 2,0 UV-I 325 W/m 23,0 km/h (4 Bft)
15.06.2014 15:30 20,3 C 23,9 C 59 % 1022,5 hPa 0,0 l/m 2 min 0 min 1,9 UV-I 971 W/m 25,1 km/h (4 Bft)
15.06.2014 15:32 20,4 C 25,6 C 58 % 1022,5 hPa 0,0 l/m 2 min 0 min 1,8 UV-I 938 W/m 20,9 km/h (4 Bft)
15.06.2014 15:34 20,6 C 27,2 C 59 % 1022,5 hPa 0,0 l/m 2 min 0 min 1,8 UV-I 930 W/m 16,7 km/h (3 Bft)
15.06.2014 15:36 20,8 C 27,8 C 57 % 1022,5 hPa 0,0 l/m 2 min 0 min 1,8 UV-I 928 W/m 20,9 km/h (4 Bft)
15.06.2014 15:38 20,9 C 28,3 C 56 % 1022,5 hPa 0,0 l/m 2 min 0 min 1,8 UV-I 922 W/m 18,8 km/h (3 Bft)
15.06.2014 15:40 21,0 C 28,9 C 56 % 1022,5 hPa 0,0 l/m 2 min 0 min 1,8 UV-I 920 W/m 12,6 km/h (3 Bft)
15.06.2014 15:42 21,2 C 28,9 C 56 % 1022,5 hPa 0,0 l/m 2 min 0 min 1,8 UV-I 912 W/m 18,8 km/h (3 Bft)
15.06.2014 15:44 21,2 C 28,9 C 56 % 1022,3 hPa 0,0 l/m 2 min 0 min 1,8 UV-I 920 W/m 18,8 km/h (3 Bft)
15.06.2014 15:46 21,1 C 28,3 C 55 % 1022,3 hPa 0,0 l/m 2 min 0 min 1,7 UV-I 902 W/m 14,6 km/h (3 Bft)
15.06.2014 15:48 21,3 C 29,4 C 56 % 1022,3 hPa 0,0 l/m 2 min 0 min 1,7 UV-I 889 W/m 18,8 km/h (3 Bft)
15.06.2014 15:50 21,4 C 30,0 C 56 % 1022,2 hPa 0,0 l/m 2 min 0 min 1,7 UV-I 894 W/m 16,7 km/h (3 Bft)
15.06.2014 15:52 21,5 C 28,9 C 55 % 1022,2 hPa 0,0 l/m 2 min 0 min 1,7 UV-I 888 W/m 20,9 km/h (4 Bft)
15.06.2014 15:54 21,2 C 28,3 C 55 % 1022,2 hPa 0,0 l/m 2 min 0 min 1,7 UV-I 896 W/m 20,9 km/h (4 Bft)
15.06.2014 15:56 21,1 C 27,8 C 55 % 1022,2 hPa 0,0 l/m 2 min 0 min 1,7 UV-I 886 W/m 23,0 km/h (4 Bft)
15.06.2014 15:58 21,1 C 27,8 C 56 % 1022,2 hPa 0,0 l/m 2 min 0 min 1,6 UV-I 918 W/m 25,1 km/h (4 Bft)
15.06.2014 16:00 21,1 C 25,6 C 57 % 1022,2 hPa 0,0 l/m 0 min 0 min 0,7 UV-I 254 W/m 27,2 km/h (4 Bft)
15.06.2014 16:02 21,0 C 23,3 C 55 % 1022,2 hPa 0,0 l/m 0 min 0 min 0,8 UV-I 305 W/m 23,0 km/h (4 Bft)
15.06.2014 16:04 20,9 C 23,9 C 56 % 1022,2 hPa 0,0 l/m 2 min 0 min 1,5 UV-I 906 W/m 20,9 km/h (4 Bft)
15.06.2014 16:06 20,9 C 23,3 C 57 % 1022,1 hPa 0,0 l/m 2 min 0 min 0,7 UV-I 906 W/m 18,8 km/h (3 Bft)
15.06.2014 16:08 20,9 C 23,9 C 57 % 1022,1 hPa 0,0 l/m 2 min 0 min 1,2 UV-I 811 W/m 10,5 km/h (2 Bft)
15.06.2014 16:10 21,2 C 25,6 C 58 % 1022,1 hPa 0,0 l/m 2 min 0 min 1,3 UV-I 811 W/m 14,6 km/h (3 Bft)
15.06.2014 16:12 21,7 C 25,0 C 58 % 1022,0 hPa 0,0 l/m 2 min 0 min 0,9 UV-I 513 W/m 14,6 km/h (3 Bft)
15.06.2014 16:14 21,8 C 25,0 C 55 % 1022,1 hPa 0,0 l/m 2 min 0 min 0,7 UV-I 932 W/m 10,5 km/h (2 Bft)
15.06.2014 16:16 21,5 C 24,4 C 55 % 1022,1 hPa 0,0 l/m 0 min 0 min 0,6 UV-I 330 W/m 10,5 km/h (2 Bft)
15.06.2014 16:18 21,3 C 23,3 C 57 % 1022,1 hPa 0,0 l/m 0 min 0 min 0,6 UV-I 344 W/m 20,9 km/h (4 Bft)
15.06.2014 16:20 21,0 C 22,2 C 57 % 1022,1 hPa 0,0 l/m 0 min 0 min 0,8 UV-I 352 W/m 18,8 km/h (3 Bft)
15.06.2014 16:22 20,8 C 21,7 C 57 % 1022,0 hPa 0,0 l/m 0 min 0 min 0,0 UV-I 267 W/m 18,8 km/h (3 Bft)
15.06.2014 16:24 20,8 C 21,7 C 58 % 1022,1 hPa 0,0 l/m 0 min 0 min 0,0 UV-I 248 W/m 16,7 km/h (3 Bft)
15.06.2014 16:26 20,7 C 21,1 C 58 % 1022,0 hPa 0,0 l/m 0 min 0 min 1,2 UV-I 277 W/m 18,8 km/h (3 Bft)
15.06.2014 16:28 20,6 C 21,1 C 57 % 1022,0 hPa 0,0 l/m 2 min 0 min 1,3 UV-I 843 W/m 18,8 km/h (3 Bft)
15.06.2014 16:30 20,9 C 21,7 C 58 % 1022,0 hPa 0,0 l/m 2 min 0 min 1,3 UV-I 861 W/m 16,7 km/h (3 Bft)
15.06.2014 16:32 21,2 C 22,2 C 58 % 1021,9 hPa 0,0 l/m 2 min 0 min 1,3 UV-I 891 W/m 20,9 km/h (4 Bft)
15.06.2014 16:34 21,4 C 22,2 C 57 % 1021,9 hPa 0,0 l/m 2 min 0 min 0,5 UV-I 888 W/m 18,8 km/h (3 Bft)
15.06.2014 16:36 21,2 C 21,7 C 55 % 1021,9 hPa 0,0 l/m 0 min 0 min 0,5 UV-I 331 W/m 14,6 km/h (3 Bft)
15.06.2014 16:38 20,9 C 21,7 C 55 % 1021,9 hPa 0,0 l/m 0 min 0 min 0,0 UV-I 330 W/m 12,6 km/h (3 Bft)
15.06.2014 16:40 20,7 C 21,7 C 58 % 1021,9 hPa 0,0 l/m 0 min 0 min 0,0 UV-I 304 W/m 10,5 km/h (2 Bft)
15.06.2014 16:42 20,7 C 21,1 C 54 % 1021,9 hPa 0,0 l/m 0 min 0 min 0,0 UV-I 339 W/m 14,6 km/h (3 Bft)
15.06.2014 16:44 20,5 C 20,6 C 54 % 1021,9 hPa 0,0 l/m 0 min 0 min 0,0 UV-I 224 W/m 14,6 km/h (3 Bft)
15.06.2014 16:46 20,5 C 20,6 C 55 % 1021,8 hPa 0,0 l/m 0 min 0 min 0,0 UV-I 206 W/m 12,6 km/h (3 Bft)
15.06.2014 16:47 20,5 C 20,6 C 55 % 1021,9 hPa 0,0 l/m 0 min 0 min 0,0 UV-I 200 W/m 10,5 km/h (2 Bft)
15.06.2014 16:50 20,4 C 20,6 C 54 % 1021,9 hPa 0,0 l/m 0 min 0 min 0,0 UV-I 182 W/m 8,4 km/h (2 Bft)
15.06.2014 16:52 20,4 C 20,6 C 56 % 1021,8 hPa 0,0 l/m 0 min 0 min 0,0 UV-I 182 W/m 8,4 km/h (2 Bft)
15.06.2014 16:54 20,4 C 20,0 C 56 % 1021,8 hPa 0,0 l/m 0 min 0 min 0,0 UV-I 176 W/m 14,6 km/h (3 Bft)
15.06.2014 16:56 20,4 C 20,0 C 58 % 1021,9 hPa 0,0 l/m 0 min 0 min 0,0 UV-I 176 W/m 16,7 km/h (3 Bft)
15.06.2014 16:58 20,3 C 20,0 C 58 % 1021,8 hPa 0,0 l/m 0 min 0 min 0,0 UV-I 184 W/m 8,4 km/h (2 Bft)
15.06.2014 17:00 20,3 C 20,0 C 58 % 1021,9 hPa 0,0 l/m 0 min 0 min 0,0 UV-I 192 W/m 18,8 km/h (3 Bft)
15.06.2014 17:02 20,2 C 20,0 C 59 % 1021,8 hPa 0,0 l/m 0 min 0 min 0,0 UV-I 194 W/m 10,5 km/h (2 Bft)
15.06.2014 17:04 20,2 C 20,0 C 58 % 1021,8 hPa 0,0 l/m 0 min 0 min 0,0 UV-I 205 W/m 16,7 km/h (3 Bft)
15.06.2014 17:06 20,1 C 19,4 C 59 % 1021,8 hPa 0,0 l/m 0 min 0 min 0,0 UV-I 237 W/m 14,6 km/h (3 Bft)
15.06.2014 17:08 20,2 C 20,0 C 58 % 1021,8 hPa 0,0 l/m 0 min 0 min 0,0 UV-I 237 W/m 14,6 km/h (3 Bft)
15.06.2014 17:10 20,2 C 20,0 C 58 % 1021,8 hPa 0,0 l/m 0 min 0 min 0,0 UV-I 229 W/m 12,6 km/h (3 Bft)
15.06.2014 17:12 20,2 C 20,0 C 58 % 1021,8 hPa 0,0 l/m 0 min 0 min 0,0 UV-I 245 W/m 10,5 km/h (2 Bft)
15.06.2014 17:14 20,2 C 20,0 C 57 % 1021,8 hPa 0,0 l/m 0 min 0 min 0,0 UV-I 248 W/m 10,5 km/h (2 Bft)
15.06.2014 17:16 20,1 C 20,0 C 59 % 1021,8 hPa 0,0 l/m 0 min 0 min 0,0 UV-I 273 W/m 10,5 km/h (2 Bft)
15.06.2014 17:18 20,2 C 20,0 C 60 % 1021,7 hPa 0,0 l/m 2 min 0 min 0,0 UV-I 819 W/m 10,5 km/h (2 Bft)
15.06.2014 17:20 20,5 C 20,6 C 59 % 1021,7 hPa 0,0 l/m 2 min 0 min 0,0 UV-I 814 W/m 14,6 km/h (3 Bft)
15.06.2014 17:22 20,7 C 21,1 C 57 % 1021,7 hPa 0,0 l/m 2 min 0 min 0,0 UV-I 798 W/m 18,8 km/h (3 Bft)
15.06.2014 17:24 20,9 C 21,1 C 57 % 1021,8 hPa 0,0 l/m 2 min 0 min 0,0 UV-I 768 W/m 20,9 km/h (4 Bft)
15.06.2014 17:26 21,1 C 21,1 C 56 % 1021,7 hPa 0,0 l/m 2 min 0 min 0,0 UV-I 738 W/m 23,0 km/h (4 Bft)
15.06.2014 17:28 21,3 C 21,1 C 55 % 1021,7 hPa 0,0 l/m 2 min 0 min 0,0 UV-I 723 W/m 16,7 km/h (3 Bft)
15.06.2014 17:30 21,2 C 21,1 C 55 % 1021,7 hPa 0,0 l/m 2 min 0 min 0,0 UV-I 720 W/m 16,7 km/h (3 Bft)
15.06.2014 17:32 21,2 C 21,1 C 55 % 1021,7 hPa 0,0 l/m 2 min 0 min 0,0 UV-I 710 W/m 16,7 km/h (3 Bft)
15.06.2014 17:34 21,4 C 21,1 C 55 % 1021,6 hPa 0,0 l/m 2 min 0 min 0,0 UV-I 619 W/m 20,9 km/h (4 Bft)
15.06.2014 17:36 21,4 C 21,1 C 55 % 1021,6 hPa 0,0 l/m 2 min 0 min 0,0 UV-I 677 W/m 23,0 km/h (4 Bft)
15.06.2014 17:38 21,5 C 21,1 C 55 % 1021,6 hPa 0,0 l/m 2 min 0 min 0,0 UV-I 720 W/m 20,9 km/h (4 Bft)
15.06.2014 17:40 21,5 C 21,1 C 53 % 1021,7 hPa 0,0 l/m 2 min 0 min 0,0 UV-I 723 W/m 16,7 km/h (3 Bft)
15.06.2014 17:42 21,6 C 21,7 C 54 % 1021,7 hPa 0,0 l/m 2 min 0 min 0,0 UV-I 680 W/m 20,9 km/h (4 Bft)
15.06.2014 17:44 21,7 C 21,1 C 54 % 1021,7 hPa 0,0 l/m 0 min 0 min 0,0 UV-I 240 W/m 23,0 km/h (4 Bft)
15.06.2014 17:46 21,4 C 20,6 C 54 % 1021,7 hPa 0,0 l/m 0 min 0 min 0,0 UV-I 224 W/m 23,0 km/h (4 Bft)
15.06.2014 17:48 21,1 C 20,6 C 55 % 1021,7 hPa 0,0 l/m 0 min 0 min 0,0 UV-I 213 W/m 25,1 km/h (4 Bft)
15.06.2014 17:50 20,9 C 20,6 C 55 % 1021,7 hPa 0,0 l/m 0 min 0 min 0,0 UV-I 263 W/m 18,8 km/h (3 Bft)
15.06.2014 17:52 20,8 C 20,6 C 55 % 1021,7 hPa 0,0 l/m 2 min 0 min 0,0 UV-I 677 W/m 18,8 km/h (3 Bft)
15.06.2014 17:54 20,8 C 20,6 C 54 % 1021,7 hPa 0,0 l/m 2 min 0 min 0,0 UV-I 613 W/m 23,0 km/h (4 Bft)
15.06.2014 17:56 20,8 C 20,6 C 55 % 1021,7 hPa 0,0 l/m 2 min 0 min 0,0 UV-I 712 W/m 16,7 km/h (3 Bft)
15.06.2014 17:58 20,7 C 20,6 C 54 % 1021,7 hPa 0,0 l/m 2 min 0 min 0,0 UV-I 323 W/m 18,8 km/h (3 Bft)
15.06.2014 18:00 20,8 C 20,6 C 54 % 1021,6 hPa 0,0 l/m 0 min 0 min 0,0 UV-I 279 W/m 16,7 km/h (3 Bft)
15.06.2014 18:02 20,8 C 21,1 C 55 % 1021,6 hPa 0,0 l/m 0 min 0 min 0,0 UV-I 259 W/m 10,5 km/h (2 Bft)
15.06.2014 18:06 20,8 C 20,6 C 54 % 1021,7 hPa 0,0 l/m 0 min 0 min 0,0 UV-I 263 W/m 18,8 km/h (3 Bft)
15.06.2014 18:08 20,7 C 20,6 C 56 % 1021,6 hPa 0,0 l/m 0 min 0 min 0,0 UV-I 232 W/m 10,5 km/h (2 Bft)
15.06.2014 18:10 20,7 C 20,6 C 56 % 1021,6 hPa 0,0 l/m 0 min 0 min 0,0 UV-I 222 W/m 23,0 km/h (4 Bft)
15.06.2014 18:12 20,6 C 20,0 C 56 % 1021,7 hPa 0,0 l/m 0 min 0 min 0,0 UV-I 222 W/m 23,0 km/h (4 Bft)
15.06.2014 18:14 20,5 C 20,0 C 57 % 1021,6 hPa 0,0 l/m 2 min 0 min 0,0 UV-I 304 W/m 23,0 km/h (4 Bft)
15.06.2014 18:16 20,6 C 20,0 C 56 % 1021,6 hPa 0,0 l/m 2 min 0 min 0,0 UV-I 416 W/m 23,0 km/h (4 Bft)
15.06.2014 18:18 20,6 C 20,0 C 56 % 1021,6 hPa 0,0 l/m 0 min 0 min 0,0 UV-I 163 W/m 14,6 km/h (3 Bft)
15.06.2014 18:20 20,6 C 19,4 C 57 % 1021,6 hPa 0,0 l/m 0 min 0 min 0,0 UV-I 152 W/m 25,1 km/h (4 Bft)
15.06.2014 18:22 20,5 C 19,4 C 57 % 1021,6 hPa 0,0 l/m 2 min 0 min 0,0 UV-I 461 W/m 16,7 km/h (3 Bft)
15.06.2014 18:24 20,5 C 19,4 C 57 % 1021,5 hPa 0,0 l/m 2 min 0 min 0,0 UV-I 461 W/m 23,0 km/h (4 Bft)
15.06.2014 18:26 20,5 C 19,4 C 58 % 1021,5 hPa 0,0 l/m 2 min 0 min 0,0 UV-I 437 W/m 16,7 km/h (3 Bft)
15.06.2014 18:28 20,6 C 19,4 C 58 % 1021,5 hPa 0,0 l/m 2 min 0 min 0,0 UV-I 430 W/m 23,0 km/h (4 Bft)
15.06.2014 18:30 20,6 C 19,4 C 57 % 1021,5 hPa 0,0 l/m 2 min 0 min 0,0 UV-I 427 W/m 25,1 km/h (4 Bft)
15.06.2014 18:32 20,6 C 19,4 C 57 % 1021,5 hPa 0,0 l/m 2 min 0 min 0,0 UV-I 427 W/m 20,9 km/h (4 Bft)
15.06.2014 18:34 20,6 C 19,4 C 57 % 1021,5 hPa 0,0 l/m 2 min 0 min 0,0 UV-I 435 W/m 20,9 km/h (4 Bft)
15.06.2014 18:36 20,5 C 19,4 C 57 % 1021,4 hPa 0,0 l/m 2 min 0 min 0,0 UV-I 435 W/m 20,9 km/h (4 Bft)
15.06.2014 18:38 20,5 C 19,4 C 58 % 1021,5 hPa 0,0 l/m 0 min 0 min 0,0 UV-I 232 W/m 16,7 km/h (3 Bft)
15.06.2014 18:40 20,5 C 19,4 C 58 % 1021,5 hPa 0,0 l/m 2 min 0 min 0,0 UV-I 518 W/m 16,7 km/h (3 Bft)
15.06.2014 18:42 20,6 C 20,0 C 59 % 1021,4 hPa 0,0 l/m 2 min 0 min 0,0 UV-I 518 W/m 18,8 km/h (3 Bft)
15.06.2014 18:44 20,7 C 20,0 C 59 % 1021,4 hPa 0,0 l/m 2 min 0 min 0,0 UV-I 520 W/m 12,6 km/h (3 Bft)
15.06.2014 18:46 20,9 C 20,0 C 58 % 1021,5 hPa 0,0 l/m 2 min 0 min 0,0 UV-I 497 W/m 18,8 km/h (3 Bft)
15.06.2014 18:48 20,9 C 20,0 C 57 % 1021,5 hPa 0,0 l/m 2 min 0 min 0,0 UV-I 481 W/m 18,8 km/h (3 Bft)
15.06.2014 18:50 20,9 C 20,0 C 58 % 1021,4 hPa 0,0 l/m 2 min 0 min 0,0 UV-I 448 W/m 25,1 km/h (4 Bft)
15.06.2014 18:52 20,9 C 20,0 C 57 % 1021,5 hPa 0,0 l/m 2 min 0 min 0,0 UV-I 416 W/m 23,0 km/h (4 Bft)
15.06.2014 18:54 20,9 C 20,0 C 57 % 1021,5 hPa 0,0 l/m 2 min 0 min 0,0 UV-I 405 W/m 20,9 km/h (4 Bft)
15.06.2014 18:56 20,9 C 20,0 C 56 % 1021,5 hPa 0,0 l/m 2 min 0 min 0,0 UV-I 389 W/m 23,0 km/h (4 Bft)
15.06.2014 18:58 20,8 C 19,4 C 56 % 1021,4 hPa 0,0 l/m 2 min 0 min 0,0 UV-I 370 W/m 23,0 km/h (4 Bft)
15.06.2014 19:00 20,8 C 19,4 C 57 % 1021,5 hPa 0,0 l/m 2 min 0 min 0,0 UV-I 354 W/m 25,1 km/h (4 Bft)
15.06.2014 19:02 20,7 C 19,4 C 56 % 1021,4 hPa 0,0 l/m 2 min 0 min 0,0 UV-I 347 W/m 23,0 km/h (4 Bft)
15.06.2014 19:04 20,7 C 19,4 C 56 % 1021,5 hPa 0,0 l/m 2 min 0 min 0,0 UV-I 344 W/m 25,1 km/h (4 Bft)
15.06.2014 19:06 20,7 C 19,4 C 56 % 1021,5 hPa 0,0 l/m 2 min 0 min 0,0 UV-I 334 W/m 16,7 km/h (3 Bft)
15.06.2014 19:08 20,7 C 19,4 C 56 % 1021,5 hPa 0,0 l/m 2 min 0 min 0,0 UV-I 328 W/m 18,8 km/h (3 Bft)
15.06.2014 19:10 20,7 C 19,4 C 57 % 1021,5 hPa 0,0 l/m 2 min 0 min 0,0 UV-I 317 W/m 12,6 km/h (3 Bft)
15.06.2014 19:12 20,7 C 19,4 C 58 % 1021,4 hPa 0,0 l/m 2 min 0 min 0,0 UV-I 317 W/m 16,7 km/h (3 Bft)
15.06.2014 19:14 20,7 C 19,4 C 58 % 1021,4 hPa 0,0 l/m 2 min 0 min 0,0 UV-I 315 W/m 10,5 km/h (2 Bft)
15.06.2014 19:16 20,7 C 19,4 C 59 % 1021,4 hPa 0,0 l/m 2 min 0 min 0,0 UV-I 312 W/m 18,8 km/h (3 Bft)
15.06.2014 19:18 20,7 C 19,4 C 56 % 1021,4 hPa 0,0 l/m 2 min 0 min 0,0 UV-I 305 W/m 18,8 km/h (3 Bft)
15.06.2014 19:20 20,7 C 19,4 C 55 % 1021,4 hPa 0,0 l/m 2 min 0 min 0,0 UV-I 291 W/m 23,0 km/h (4 Bft)
15.06.2014 19:22 20,7 C 19,4 C 55 % 1021,4 hPa 0,0 l/m 2 min 0 min 0,0 UV-I 275 W/m 20,9 km/h (4 Bft)
15.06.2014 19:24 20,7 C 19,4 C 57 % 1021,4 hPa 0,0 l/m 2 min 0 min 0,0 UV-I 267 W/m 20,9 km/h (4 Bft)
15.06.2014 19:26 20,6 C 19,4 C 57 % 1021,4 hPa 0,0 l/m 2 min 0 min 0,0 UV-I 190 W/m 23,0 km/h (4 Bft)
15.06.2014 19:28 20,6 C 19,4 C 56 % 1021,4 hPa 0,0 l/m 0 min 0 min 0,0 UV-I 69 W/m 18,8 km/h (3 Bft)
15.06.2014 19:30 20,4 C 18,9 C 56 % 1021,5 hPa 0,0 l/m 0 min 0 min 0,0 UV-I 69 W/m 20,9 km/h (4 Bft)
15.06.2014 19:32 20,3 C 18,9 C 56 % 1021,4 hPa 0,0 l/m 0 min 0 min 0,0 UV-I 64 W/m 18,8 km/h (3 Bft)
15.06.2014 19:34 20,2 C 18,9 C 57 % 1021,4 hPa 0,0 l/m 0 min 0 min 0,0 UV-I 59 W/m 18,8 km/h (3 Bft)
15.06.2014 19:36 20,1 C 18,9 C 57 % 1021,4 hPa 0,0 l/m 0 min 0 min 0,0 UV-I 56 W/m 14,6 km/h (3 Bft)
15.06.2014 19:38 20,0 C 18,3 C 58 % 1021,4 hPa 0,0 l/m 0 min 0 min 0,0 UV-I 54 W/m 14,6 km/h (3 Bft)
15.06.2014 19:40 19,9 C 18,3 C 58 % 1021,4 hPa 0,0 l/m 0 min 0 min 0,0 UV-I 54 W/m 14,6 km/h (3 Bft)
15.06.2014 19:42 19,8 C 18,3 C 58 % 1021,4 hPa 0,0 l/m 0 min 0 min 0,0 UV-I 54 W/m 14,6 km/h (3 Bft)
15.06.2014 19:44 19,8 C 18,3 C 59 % 1021,4 hPa 0,0 l/m 0 min 0 min 0,0 UV-I 59 W/m 20,9 km/h (4 Bft)
15.06.2014 19:46 19,8 C 18,3 C 58 % 1021,4 hPa 0,0 l/m 0 min 0 min 0,0 UV-I 59 W/m 14,6 km/h (3 Bft)
15.06.2014 19:48 19,7 C 18,3 C 59 % 1021,4 hPa 0,0 l/m 0 min 0 min 0,0 UV-I 120 W/m 10,5 km/h (2 Bft)
15.06.2014 19:50 19,7 C 18,3 C 59 % 1021,4 hPa 0,0 l/m 2 min 0 min 0,0 UV-I 150 W/m 16,7 km/h (3 Bft)
15.06.2014 19:52 19,7 C 18,3 C 60 % 1021,5 hPa 0,0 l/m 2 min 0 min 0,0 UV-I 194 W/m 12,6 km/h (3 Bft)
15.06.2014 19:54 19,7 C 18,3 C 60 % 1021,4 hPa 0,0 l/m 0 min 0 min 0,0 UV-I 128 W/m 16,7 km/h (3 Bft)
15.06.2014 19:56 19,8 C 18,3 C 60 % 1021,5 hPa 0,0 l/m 0 min 0 min 0,0 UV-I 83 W/m 18,8 km/h (3 Bft)
15.06.2014 19:58 19,8 C 18,3 C 60 % 1021,5 hPa 0,0 l/m 0 min 0 min 0,0 UV-I 69 W/m 10,5 km/h (2 Bft)
15.06.2014 20:00 19,8 C 18,3 C 60 % 1021,5 hPa 0,0 l/m 2 min 0 min 0,0 UV-I 184 W/m 12,6 km/h (3 Bft)
15.06.2014 20:02 19,8 C 18,3 C 60 % 1021,5 hPa 0,0 l/m 2 min 0 min 0,0 UV-I 170 W/m 8,4 km/h (2 Bft)
15.06.2014 20:04 19,8 C 18,3 C 60 % 1021,4 hPa 0,0 l/m 2 min 0 min 0,0 UV-I 168 W/m 14,6 km/h (3 Bft)
15.06.2014 20:06 19,8 C 18,3 C 60 % 1021,5 hPa 0,0 l/m 2 min 0 min 0,0 UV-I 163 W/m 16,7 km/h (3 Bft)
15.06.2014 20:08 19,9 C 18,3 C 60 % 1021,4 hPa 0,0 l/m 2 min 0 min 0,0 UV-I 155 W/m 10,5 km/h (2 Bft)
15.06.2014 20:10 19,9 C 18,3 C 59 % 1021,4 hPa 0,0 l/m 2 min 0 min 0,0 UV-I 150 W/m 16,7 km/h (3 Bft)
15.06.2014 20:12 19,9 C 18,3 C 59 % 1021,4 hPa 0,0 l/m 2 min 0 min 0,0 UV-I 146 W/m 14,6 km/h (3 Bft)
15.06.2014 20:14 19,9 C 18,3 C 59 % 1021,4 hPa 0,0 l/m 2 min 0 min 0,0 UV-I 139 W/m 16,7 km/h (3 Bft)
15.06.2014 20:16 19,9 C 18,3 C 60 % 1021,4 hPa 0,0 l/m 2 min 0 min 0,0 UV-I 136 W/m 10,5 km/h (2 Bft)
15.06.2014 20:18 19,9 C 18,3 C 59 % 1021,4 hPa 0,0 l/m 2 min 0 min 0,0 UV-I 131 W/m 10,5 km/h (2 Bft)
15.06.2014 20:20 19,9 C 18,3 C 59 % 1021,5 hPa 0,0 l/m 2 min 0 min 0,0 UV-I 128 W/m 10,5 km/h (2 Bft)
15.06.2014 20:22 19,9 C 18,3 C 59 % 1021,4 hPa 0,0 l/m 2 min 0 min 0,0 UV-I 123 W/m 12,6 km/h (3 Bft)
15.06.2014 20:24 19,9 C 18,3 C 59 % 1021,4 hPa 0,0 l/m 2 min 0 min 0,0 UV-I 120 W/m 10,5 km/h (2 Bft)
15.06.2014 20:26 19,9 C 18,3 C 59 % 1021,4 hPa 0,0 l/m 2 min 0 min 0,0 UV-I 117 W/m 12,6 km/h (3 Bft)
15.06.2014 20:28 19,9 C 18,3 C 60 % 1021,4 hPa 0,0 l/m 2 min 0 min 0,0 UV-I 115 W/m 12,6 km/h (3 Bft)
15.06.2014 20:30 19,9 C 18,3 C 59 % 1021,5 hPa 0,0 l/m 2 min 0 min 0,0 UV-I 113 W/m 8,4 km/h (2 Bft)
15.06.2014 20:32 19,9 C 18,3 C 59 % 1021,5 hPa 0,0 l/m 2 min 0 min 0,0 UV-I 113 W/m 12,6 km/h (3 Bft)
15.06.2014 20:34 19,9 C 18,3 C 58 % 1021,5 hPa 0,0 l/m 2 min 0 min 0,0 UV-I 113 W/m 18,8 km/h (3 Bft)
15.06.2014 20:36 19,9 C 18,3 C 59 % 1021,5 hPa 0,0 l/m 2 min 0 min 0,0 UV-I 112 W/m 12,6 km/h (3 Bft)
15.06.2014 20:38 19,9 C 18,3 C 59 % 1021,5 hPa 0,0 l/m 2 min 0 min 0,0 UV-I 109 W/m 12,6 km/h (3 Bft)
15.06.2014 20:40 19,9 C 18,3 C 59 % 1021,5 hPa 0,0 l/m 2 min 0 min 0,0 UV-I 107 W/m 16,7 km/h (3 Bft)
15.06.2014 20:42 19,9 C 18,3 C 58 % 1021,6 hPa 0,0 l/m 2 min 0 min 0,0 UV-I 105 W/m 16,7 km/h (3 Bft)
15.06.2014 20:44 19,9 C 18,3 C 58 % 1021,5 hPa 0,0 l/m 2 min 0 min 0,0 UV-I 97 W/m 16,7 km/h (3 Bft)
15.06.2014 20:46 19,9 C 18,3 C 58 % 1021,5 hPa 0,0 l/m 2 min 0 min 0,0 UV-I 93 W/m 12,6 km/h (3 Bft)
15.06.2014 20:48 19,8 C 18,3 C 59 % 1021,5 hPa 0,0 l/m 2 min 0 min 0,0 UV-I 89 W/m 6,3 km/h (2 Bft)
15.06.2014 20:50 19,8 C 18,3 C 59 % 1021,5 hPa 0,0 l/m 2 min 0 min 0,0 UV-I 80 W/m 16,7 km/h (3 Bft)
15.06.2014 20:52 19,8 C 18,3 C 58 % 1021,5 hPa 0,0 l/m 2 min 0 min 0,0 UV-I 77 W/m 14,6 km/h (3 Bft)
15.06.2014 20:54 19,8 C 18,3 C 59 % 1021,5 hPa 0,0 l/m 2 min 0 min 0,0 UV-I 69 W/m 12,6 km/h (3 Bft)
15.06.2014 20:56 19,7 C 18,3 C 59 % 1021,5 hPa 0,0 l/m 2 min 0 min 0,0 UV-I 62 W/m 12,6 km/h (3 Bft)
15.06.2014 20:58 19,7 C 18,3 C 59 % 1021,5 hPa 0,0 l/m 2 min 0 min 0,0 UV-I 59 W/m 14,6 km/h (3 Bft)
15.06.2014 21:00 19,6 C 18,3 C 59 % 1021,6 hPa 0,0 l/m 2 min 0 min 0,0 UV-I 56 W/m 14,6 km/h (3 Bft)
15.06.2014 21:02 19,6 C 17,8 C 60 % 1021,5 hPa 0,0 l/m 2 min 0 min 0,0 UV-I 54 W/m 16,7 km/h (3 Bft)
15.06.2014 21:04 19,5 C 17,8 C 60 % 1021,5 hPa 0,0 l/m 2 min 0 min 0,0 UV-I 53 W/m 12,6 km/h (3 Bft)
15.06.2014 21:06 19,5 C 17,8 C 60 % 1021,5 hPa 0,0 l/m 2 min 0 min 0,0 UV-I 51 W/m 14,6 km/h (3 Bft)
15.06.2014 21:08 19,4 C 17,8 C 60 % 1021,6 hPa 0,0 l/m 2 min 0 min 0,0 UV-I 48 W/m 12,6 km/h (3 Bft)
15.06.2014 21:10 19,4 C 17,8 C 60 % 1021,6 hPa 0,0 l/m 2 min 0 min 0,0 UV-I 46 W/m 10,5 km/h (2 Bft)
15.06.2014 21:12 19,3 C 17,8 C 61 % 1021,6 hPa 0,0 l/m 2 min 0 min 0,0 UV-I 45 W/m 23,0 km/h (4 Bft)
15.06.2014 21:14 19,3 C 17,8 C 61 % 1021,7 hPa 0,0 l/m 2 min 0 min 0,0 UV-I 43 W/m 25,1 km/h (4 Bft)
15.06.2014 21:16 19,3 C 17,8 C 62 % 1021,6 hPa 0,0 l/m 2 min 0 min 0,0 UV-I 40 W/m 20,9 km/h (4 Bft)
15.06.2014 21:18 19,2 C 17,8 C 63 % 1021,7 hPa 0,0 l/m 2 min 0 min 0,0 UV-I 34 W/m 20,9 km/h (4 Bft)
15.06.2014 21:20 19,2 C 17,8 C 64 % 1021,6 hPa 0,0 l/m 2 min 0 min 0,0 UV-I 34 W/m 12,6 km/h (3 Bft)
15.06.2014 21:22 19,1 C 17,8 C 64 % 1021,7 hPa 0,0 l/m 2 min 0 min 0,0 UV-I 32 W/m 14,6 km/h (3 Bft)
15.06.2014 21:24 19,0 C 17,8 C 65 % 1021,6 hPa 0,0 l/m 2 min 0 min 0,0 UV-I 30 W/m 14,6 km/h (3 Bft)
15.06.2014 21:26 18,9 C 17,2 C 65 % 1021,6 hPa 0,0 l/m 2 min 0 min 0,0 UV-I 30 W/m 16,7 km/h (3 Bft)
15.06.2014 21:28 18,9 C 17,2 C 67 % 1021,7 hPa 0,0 l/m 2 min 0 min 0,0 UV-I 29 W/m 20,9 km/h (4 Bft)
15.06.2014 21:30 18,8 C 17,2 C 67 % 1021,7 hPa 0,0 l/m 2 min 0 min 0,0 UV-I 24 W/m 18,8 km/h (3 Bft)
15.06.2014 21:32 18,7 C 17,2 C 68 % 1021,7 hPa 0,0 l/m 2 min 0 min 0,0 UV-I 22 W/m 16,7 km/h (3 Bft)
15.06.2014 21:34 18,7 C 17,2 C 68 % 1021,7 hPa 0,0 l/m 2 min 0 min 0,0 UV-I 21 W/m 25,1 km/h (4 Bft)
15.06.2014 21:36 18,6 C 17,2 C 69 % 1021,7 hPa 0,0 l/m 2 min 0 min 0,0 UV-I 21 W/m 25,1 km/h (4 Bft)
15.06.2014 21:38 18,6 C 17,2 C 69 % 1021,7 hPa 0,0 l/m 0 min 0 min 0,0 UV-I 18 W/m 18,8 km/h (3 Bft)
15.06.2014 21:40 18,5 C 17,2 C 69 % 1021,7 hPa 0,0 l/m 0 min 0 min 0,0 UV-I 16 W/m 25,1 km/h (4 Bft)
15.06.2014 21:42 18,4 C 16,7 C 70 % 1021,8 hPa 0,0 l/m 0 min 0 min 0,0 UV-I 14 W/m 16,7 km/h (3 Bft)
15.06.2014 21:44 18,3 C 16,7 C 70 % 1021,8 hPa 0,0 l/m 0 min 0 min 0,0 UV-I 13 W/m 23,0 km/h (4 Bft)
15.06.2014 21:46 18,3 C 16,7 C 70 % 1021,8 hPa 0,0 l/m 0 min 0 min 0,0 UV-I 10 W/m 14,6 km/h (3 Bft)
15.06.2014 21:48 18,2 C 16,7 C 71 % 1021,9 hPa 0,0 l/m 0 min 0 min 0,0 UV-I 8 W/m 14,6 km/h (3 Bft)
15.06.2014 21:50 18,1 C 16,7 C 71 % 1021,9 hPa 0,0 l/m 0 min 0 min 0,0 UV-I 8 W/m 18,8 km/h (3 Bft)
15.06.2014 21:52 18,1 C 16,7 C 72 % 1021,9 hPa 0,0 l/m 0 min 0 min 0,0 UV-I 6 W/m 14,6 km/h (3 Bft)
15.06.2014 21:54 18,0 C 16,7 C 72 % 1022,0 hPa 0,0 l/m 0 min 0 min 0,0 UV-I 6 W/m 12,6 km/h (3 Bft)
15.06.2014 21:56 17,9 C 16,1 C 72 % 1022,0 hPa 0,0 l/m 0 min 0 min 0,0 UV-I 6 W/m 16,7 km/h (3 Bft)
15.06.2014 21:58 17,9 C 16,1 C 72 % 1022,1 hPa 0,0 l/m 0 min 0 min 0,0 UV-I 0 W/m 14,6 km/h (3 Bft)
15.06.2014 22:00 17,8 C 16,1 C 73 % 1022,1 hPa 0,0 l/m 0 min 0 min 0,0 UV-I 0 W/m 14,6 km/h (3 Bft)
15.06.2014 22:02 17,8 C 16,1 C 73 % 1022,1 hPa 0,0 l/m 0 min 0 min 0,0 UV-I 0 W/m 16,7 km/h (3 Bft)
15.06.2014 22:04 17,7 C 16,1 C 73 % 1022,1 hPa 0,0 l/m 0 min 0 min 0,0 UV-I 0 W/m 20,9 km/h (4 Bft)
15.06.2014 22:06 17,7 C 16,1 C 73 % 1022,1 hPa 0,0 l/m 0 min 0 min 0,0 UV-I 0 W/m 14,6 km/h (3 Bft)
15.06.2014 22:08 17,6 C 16,1 C 74 % 1022,2 hPa 0,0 l/m 0 min 0 min 0,0 UV-I 0 W/m 18,8 km/h (3 Bft)
15.06.2014 22:10 17,5 C 16,1 C 74 % 1022,2 hPa 0,0 l/m 0 min 0 min 0,0 UV-I 0 W/m 12,6 km/h (3 Bft)
15.06.2014 22:12 17,4 C 16,1 C 74 % 1022,2 hPa 0,0 l/m 0 min 0 min 0,0 UV-I 0 W/m 14,6 km/h (3 Bft)
15.06.2014 22:14 17,4 C 15,6 C 75 % 1022,3 hPa 0,0 l/m 0 min 0 min 0,0 UV-I 0 W/m 14,6 km/h (3 Bft)
15.06.2014 22:16 17,3 C 15,6 C 75 % 1022,3 hPa 0,0 l/m 0 min 0 min 0,0 UV-I 0 W/m 18,8 km/h (3 Bft)
15.06.2014 22:18 17,3 C 15,6 C 75 % 1022,3 hPa 0,0 l/m 0 min 0 min 0,0 UV-I 0 W/m 16,7 km/h (3 Bft)
15.06.2014 22:20 17,2 C 15,6 C 75 % 1022,3 hPa 0,0 l/m 0 min 0 min 0,0 UV-I 0 W/m 20,9 km/h (4 Bft)
15.06.2014 22:22 17,2 C 15,6 C 75 % 1022,3 hPa 0,0 l/m 0 min 0 min 0,0 UV-I 0 W/m 18,8 km/h (3 Bft)
15.06.2014 22:24 17,1 C 15,6 C 76 % 1022,4 hPa 0,0 l/m 0 min 0 min 0,0 UV-I 0 W/m 27,2 km/h (4 Bft)
15.06.2014 22:26 17,1 C 15,6 C 76 % 1022,4 hPa 0,0 l/m 0 min 0 min 0,0 UV-I 0 W/m 23,0 km/h (4 Bft)
15.06.2014 22:28 17,1 C 15,6 C 76 % 1022,4 hPa 0,0 l/m 0 min 0 min 0,0 UV-I 0 W/m 25,1 km/h (4 Bft)
15.06.2014 22:30 17,0 C 15,6 C 76 % 1022,5 hPa 0,0 l/m 0 min 0 min 0,0 UV-I 0 W/m 20,9 km/h (4 Bft)
15.06.2014 22:32 16,9 C 15,6 C 76 % 1022,6 hPa 0,0 l/m 0 min 0 min 0,0 UV-I 0 W/m 23,0 km/h (4 Bft)
15.06.2014 22:34 16,9 C 15,6 C 76 % 1022,6 hPa 0,0 l/m 0 min 0 min 0,0 UV-I 0 W/m 20,9 km/h (4 Bft)
15.06.2014 22:36 16,9 C 15,6 C 76 % 1022,6 hPa 0,0 l/m 0 min 0 min 0,0 UV-I 0 W/m 23,0 km/h (4 Bft)
15.06.2014 22:38 16,8 C 15,6 C 76 % 1022,7 hPa 0,0 l/m 0 min 0 min 0,0 UV-I 0 W/m 16,7 km/h (3 Bft)
15.06.2014 22:40 16,8 C 15,0 C 76 % 1022,7 hPa 0,0 l/m 0 min 0 min 0,0 UV-I 0 W/m 16,7 km/h (3 Bft)
15.06.2014 22:42 16,7 C 15,0 C 76 % 1022,7 hPa 0,0 l/m 0 min 0 min 0,0 UV-I 0 W/m 16,7 km/h (3 Bft)
15.06.2014 22:44 16,7 C 15,0 C 76 % 1022,7 hPa 0,0 l/m 0 min 0 min 0,0 UV-I 0 W/m 16,7 km/h (3 Bft)
15.06.2014 22:46 16,7 C 15,0 C 77 % 1022,8 hPa 0,0 l/m 0 min 0 min 0,0 UV-I 0 W/m 16,7 km/h (3 Bft)
15.06.2014 22:48 16,6 C 15,0 C 77 % 1022,7 hPa 0,0 l/m 0 min 0 min 0,0 UV-I 0 W/m 12,6 km/h (3 Bft)
15.06.2014 22:50 16,6 C 15,0 C 77 % 1022,8 hPa 0,0 l/m 0 min 0 min 0,0 UV-I 0 W/m 23,0 km/h (4 Bft)
15.06.2014 22:52 16,5 C 15,0 C 77 % 1022,8 hPa 0,0 l/m 0 min 0 min 0,0 UV-I 0 W/m 20,9 km/h (4 Bft)
15.06.2014 22:54 16,4 C 15,0 C 77 % 1022,8 hPa 0,0 l/m 0 min 0 min 0,0 UV-I 0 W/m 20,9 km/h (4 Bft)
15.06.2014 22:56 16,4 C 15,0 C 77 % 1022,8 hPa 0,0 l/m 0 min 0 min 0,0 UV-I 0 W/m 18,8 km/h (3 Bft)
15.06.2014 22:58 16,4 C 15,0 C 77 % 1022,8 hPa 0,0 l/m 0 min 0 min 0,0 UV-I 0 W/m 16,7 km/h (3 Bft)
15.06.2014 23:00 16,3 C 15,0 C 77 % 1022,8 hPa 0,0 l/m 0 min 0 min 0,0 UV-I 0 W/m 14,6 km/h (3 Bft)
15.06.2014 23:02 16,3 C 15,0 C 77 % 1022,8 hPa 0,0 l/m 0 min 0 min 0,0 UV-I 0 W/m 20,9 km/h (4 Bft)
15.06.2014 23:04 16,2 C 15,0 C 77 % 1022,8 hPa 0,0 l/m 0 min 0 min 0,0 UV-I 0 W/m 16,7 km/h (3 Bft)
15.06.2014 23:06 16,2 C 15,0 C 78 % 1022,9 hPa 0,0 l/m 0 min 0 min 0,0 UV-I 0 W/m 14,6 km/h (3 Bft)
15.06.2014 23:08 16,2 C 14,4 C 78 % 1022,9 hPa 0,0 l/m 0 min 0 min 0,0 UV-I 0 W/m 18,8 km/h (3 Bft)
15.06.2014 23:10 16,1 C 14,4 C 78 % 1022,9 hPa 0,0 l/m 0 min 0 min 0,0 UV-I 0 W/m 14,6 km/h (3 Bft)
15.06.2014 23:12 16,1 C 14,4 C 78 % 1022,9 hPa 0,0 l/m 0 min 0 min 0,0 UV-I 0 W/m 18,8 km/h (3 Bft)
15.06.2014 23:14 16,0 C 14,4 C 78 % 1022,9 hPa 0,0 l/m 0 min 0 min 0,0 UV-I 0 W/m 14,6 km/h (3 Bft)
15.06.2014 23:16 15,9 C 14,4 C 78 % 1023,0 hPa 0,0 l/m 0 min 0 min 0,0 UV-I 0 W/m 14,6 km/h (3 Bft)
15.06.2014 23:18 15,9 C 14,4 C 78 % 1023,0 hPa 0,0 l/m 0 min 0 min 0,0 UV-I 0 W/m 12,6 km/h (3 Bft)
15.06.2014 23:20 15,9 C 14,4 C 78 % 1023,1 hPa 0,0 l/m 0 min 0 min 0,0 UV-I 0 W/m 12,6 km/h (3 Bft)
15.06.2014 23:22 15,8 C 14,4 C 79 % 1023,1 hPa 0,0 l/m 0 min 0 min 0,0 UV-I 0 W/m 16,7 km/h (3 Bft)
15.06.2014 23:24 15,8 C 14,4 C 79 % 1023,1 hPa 0,0 l/m 0 min 0 min 0,0 UV-I 0 W/m 16,7 km/h (3 Bft)
15.06.2014 23:26 15,8 C 14,4 C 79 % 1023,1 hPa 0,0 l/m 0 min 0 min 0,0 UV-I 0 W/m 18,8 km/h (3 Bft)
15.06.2014 23:28 15,7 C 14,4 C 79 % 1023,2 hPa 0,0 l/m 0 min 0 min 0,0 UV-I 0 W/m 14,6 km/h (3 Bft)
15.06.2014 23:30 15,7 C 14,4 C 79 % 1023,2 hPa 0,0 l/m 0 min 0 min 0,0 UV-I 0 W/m 8,4 km/h (2 Bft)
15.06.2014 23:32 15,7 C 14,4 C 79 % 1023,1 hPa 0,0 l/m 0 min 0 min 0,0 UV-I 0 W/m 10,5 km/h (2 Bft)
15.06.2014 23:34 15,6 C 13,9 C 79 % 1023,2 hPa 0,0 l/m 0 min 0 min 0,0 UV-I 0 W/m 10,5 km/h (2 Bft)
15.06.2014 23:36 15,6 C 13,9 C 80 % 1023,1 hPa 0,0 l/m 0 min 0 min 0,0 UV-I 0 W/m 8,4 km/h (2 Bft)
15.06.2014 23:38 15,4 C 13,9 C 80 % 1023,2 hPa 0,0 l/m 0 min 0 min 0,0 UV-I 0 W/m 10,5 km/h (2 Bft)
15.06.2014 23:40 15,4 C 13,9 C 80 % 1023,2 hPa 0,0 l/m 0 min 0 min 0,0 UV-I 0 W/m 16,7 km/h (3 Bft)
15.06.2014 23:42 15,3 C 13,9 C 80 % 1023,2 hPa 0,0 l/m 0 min 0 min 0,0 UV-I 0 W/m 18,8 km/h (3 Bft)
15.06.2014 23:44 15,3 C 13,9 C 81 % 1023,3 hPa 0,0 l/m 0 min 0 min 0,0 UV-I 0 W/m 18,8 km/h (3 Bft)
15.06.2014 23:46 15,3 C 13,9 C 81 % 1023,3 hPa 0,0 l/m 0 min 0 min 0,0 UV-I 0 W/m 10,5 km/h (2 Bft)
15.06.2014 23:48 15,3 C 13,9 C 81 % 1023,3 hPa 0,0 l/m 0 min 0 min 0,0 UV-I 0 W/m 16,7 km/h (3 Bft)
15.06.2014 23:50 15,2 C 13,9 C 81 % 1023,3 hPa 0,0 l/m 0 min 0 min 0,0 UV-I 0 W/m 18,8 km/h (3 Bft)
15.06.2014 23:52 15,2 C 13,9 C 81 % 1023,3 hPa 0,0 l/m 0 min 0 min 0,0 UV-I 0 W/m 18,8 km/h (3 Bft)
15.06.2014 23:54 15,2 C 13,9 C 81 % 1023,3 hPa 0,0 l/m 0 min 0 min 0,0 UV-I 0 W/m 14,6 km/h (3 Bft)
15.06.2014 23:56 15,2 C 13,9 C 81 % 1023,2 hPa 0,0 l/m 0 min 0 min 0,0 UV-I 0 W/m 14,6 km/h (3 Bft)
15.06.2014 23:58 15,1 C 13,9 C 81 % 1023,3 hPa 0,0 l/m 0 min 0 min 0,0 UV-I 0 W/m 20,9 km/h (4 Bft)
_ Min-Zeit 05:38 05:08 17:40 18:36 - - - - - 02:50
Minimum _ 11,1 C 10,0 C 53 % 1021,4 hPa - - - - - 0,0 km/h (0 Bft)
_ Max-Zeit 16:14 15:50 05:58 10:24 00:00 05:32 00:00 13:06 12:12 14:28
Maximum _ 21,8 C 30,0 C 95 % 1023,7 hPa 0,0 l/m 2 min 0 min 2,9 UV-I 1248 W/m 29,3 km/h
NO (5 Bft)
Durchschnitt _ 16,4 C 16,5 C 75 % 1022,7 hPa #0,0 l/m #10:02 h #0 min. 1,6 UV-I 409 W/m 13,4 km/h (3 Bft)
© 2014 W. Hausmann